M I D A S
Marine Information and Data Acquisition System
Tripno 1652 of the Zeeleeuw from 2009-03-03 07:48:57 to 2009-03-03 15:26:41
Back to CruiseResearch ActivitiesStationsMapUnderway DataData graphs

EquipmentUnitsComment
TimeDGPSUTC
LatitudeDGPSDM.mWGS84
LongitudeDGPSDM.mWGS84
TemperatureSBE03/SBE38deg celciusITS90
ConductivitySBE21S/mITS90
SalinitySBE21 Practical Salinity Units
ChlorophylAChelsea fluorimeterg/lCalibrated in Aceton
Missing or incorrect values are displayed as -999
Sea surface data collected by the RV Zeeleeuw from 2009-03-03 07:41:01 to 2009-03-03 15:35:30
                                                                                    Next 1000 lines
Time Latitude Longitude Temperature Conductivity Salinity ChlorophylA
2009-03-03 07:41:10 51°13.661 2°55.957 -999 0.085019 0.47283 -1.418457
2009-03-03 07:41:16 51°13.661 2°55.956 -999 0.085019 0.47283 -1.418457
2009-03-03 07:41:21 51°13.662 2°55.954 -999 0.085019 0.47283 -1.418457
2009-03-03 07:41:25 51°13.663 2°55.952 -999 0.085019 0.472839 -1.418457
2009-03-03 07:41:30 51°13.664 2°55.95 -999 0.085019 0.472839 -1.418457
2009-03-03 07:41:36 51°13.665 2°55.946 -999 0.085019 0.472847 -1.418457
2009-03-03 07:41:41 51°13.666 2°55.943 -999 0.085019 0.472856 -1.418457
2009-03-03 07:41:47 51°13.667 2°55.94 -999 0.085019 0.472856 -1.418457
2009-03-03 07:41:52 51°13.668 2°55.936 -999 0.085019 0.472856 -1.418457
2009-03-03 07:41:58 51°13.67 2°55.932 -999 0.085019 0.472864 -1.418457
2009-03-03 07:42:03 51°13.671 2°55.928 -999 0.085019 0.472864 -1.418457
2009-03-03 07:42:09 51°13.673 2°55.923 -999 0.085019 0.472873 -1.418457
2009-03-03 07:42:14 51°13.675 2°55.918 -999 0.085019 0.472864 -1.418457
2009-03-03 07:42:20 51°13.676 2°55.912 -999 0.085019 0.472873 -1.418457
2009-03-03 07:42:25 51°13.677 2°55.907 -999 0.085019 0.472873 -1.418457
2009-03-03 07:42:29 51°13.678 2°55.903 -999 0.085019 0.472873 -1.418457
2009-03-03 07:42:34 51°13.679 2°55.898 -999 0.085019 0.472881 -1.418457
2009-03-03 07:42:39 51°13.681 2°55.892 -999 0.085019 0.472881 -1.418457
2009-03-03 07:42:45 51°13.682 2°55.885 -999 0.085019 0.47289 -1.418457
2009-03-03 07:42:49 51°13.683 2°55.881 -999 0.085019 0.47289 -1.418457
2009-03-03 07:42:54 51°13.685 2°55.875 -999 0.085019 0.47289 -1.418457
2009-03-03 07:43:00 51°13.686 2°55.868 -999 0.085019 0.472899 -1.418457
2009-03-03 07:43:04 51°13.687 2°55.863 -999 0.085019 0.472899 -1.418457
2009-03-03 07:43:09 51°13.688 2°55.857 -999 0.085019 0.472899 -1.418457
2009-03-03 07:43:14 51°13.69 2°55.851 -999 0.085019 0.472899 -1.418457
2009-03-03 07:43:19 51°13.69 2°55.845 -999 0.085019 0.472899 -1.418457
2009-03-03 07:43:24 51°13.691 2°55.838 -999 0.085019 0.472899 -1.418457
2009-03-03 07:43:29 51°13.692 2°55.832 -999 0.085019 0.472899 -1.418457
2009-03-03 07:43:34 51°13.693 2°55.826 -999 0.085019 0.472899 -1.418457
2009-03-03 07:43:40 51°13.694 2°55.818 -999 0.085019 0.472899 -1.418457
2009-03-03 07:43:44 51°13.695 2°55.814 -999 0.085019 0.472899 -1.418457
2009-03-03 07:43:49 51°13.695 2°55.807 -999 0.085019 0.472899 -1.418457
2009-03-03 07:43:54 51°13.695 2°55.801 -999 0.085019 0.472899 -1.418457
2009-03-03 07:44:00 51°13.696 2°55.793 -999 0.085019 0.472899 -1.418457
2009-03-03 07:44:05 51°13.696 2°55.787 -999 0.085019 0.472907 -1.418457
2009-03-03 07:44:09 51°13.697 2°55.783 -999 0.085019 0.472907 -1.418457
2009-03-03 07:44:14 51°13.698 2°55.777 -999 0.085019 0.472907 -1.418457
2009-03-03 07:44:20 51°13.698 2°55.772 -999 0.085019 0.472899 -1.418457
2009-03-03 07:44:25 51°13.699 2°55.768 -999 0.085019 0.472899 -1.418457
2009-03-03 07:44:29 51°13.699 2°55.766 -999 0.085019 0.472899 -1.418457
2009-03-03 07:44:34 51°13.7 2°55.765 -999 0.085019 0.472899 -1.418457
2009-03-03 07:44:40 51°13.701 2°55.765 -999 0.085019 0.47289 -1.418457
2009-03-03 07:44:45 51°13.702 2°55.766 -999 0.085019 0.472881 -1.418457
2009-03-03 07:44:49 51°13.703 2°55.767 -999 0.085019 0.47289 -1.418457
2009-03-03 07:44:54 51°13.705 2°55.769 -999 0.085019 0.47289 -1.418457
2009-03-03 07:45:00 51°13.707 2°55.771 -999 0.085019 0.472899 -1.418457
2009-03-03 07:45:05 51°13.709 2°55.772 -999 0.085019 0.472907 -1.418457
2009-03-03 07:45:09 51°13.71 2°55.773 -999 0.085019 0.472916 -1.418457
2009-03-03 07:45:14 51°13.711 2°55.773 -999 0.084916 0.47233 -1.418457
2009-03-03 07:45:19 51°13.711 2°55.773 -999 0.084916 0.472339 -1.418457
2009-03-03 07:45:25 51°13.711 2°55.772 -999 0.084916 0.472339 -1.418457
2009-03-03 07:45:29 51°13.71 2°55.772 -999 0.084916 0.472339 -1.418457
2009-03-03 07:45:34 51°13.709 2°55.77 -999 0.084916 0.472347 -1.383633
2009-03-03 07:45:39 51°13.708 2°55.769 -999 0.084916 0.472347 -1.418457
2009-03-03 07:45:44 51°13.707 2°55.768 -999 0.084916 0.472339 -1.418457
2009-03-03 07:45:49 51°13.705 2°55.767 -999 0.084916 0.472347 -1.418457
2009-03-03 07:45:54 51°13.704 2°55.766 -999 0.084916 0.472347 -1.418457
2009-03-03 07:46:00 51°13.703 2°55.765 -999 0.084916 0.472347 -1.418457
2009-03-03 07:46:04 51°13.703 2°55.764 -999 0.084916 0.472356 -1.418457
2009-03-03 07:46:09 51°13.703 2°55.764 -999 0.084916 0.472356 -1.418457
2009-03-03 07:46:14 51°13.703 2°55.764 -999 0.084916 0.472364 -1.418457
2009-03-03 07:46:20 51°13.704 2°55.763 -999 0.084916 0.472364 -1.418457
2009-03-03 07:46:25 51°13.705 2°55.762 -999 0.084916 0.472364 -1.418457
2009-03-03 07:46:29 51°13.707 2°55.762 -999 0.084916 0.472364 -1.383633
2009-03-03 07:46:34 51°13.709 2°55.761 -999 0.084916 0.472364 -1.418457
2009-03-03 07:46:39 51°13.711 2°55.76 -999 0.084916 0.472364 -1.418457
2009-03-03 07:46:44 51°13.713 2°55.758 -999 0.084916 0.472373 -1.418457
2009-03-03 07:46:49 51°13.716 2°55.756 -999 0.084916 0.472381 -1.383633
2009-03-03 07:46:54 51°13.72 2°55.752 -999 0.084916 0.472381 -1.383633
2009-03-03 07:47:00 51°13.724 2°55.748 -999 0.084916 0.472381 -1.418457
2009-03-03 07:47:05 51°13.728 2°55.743 -999 0.084916 0.47239 -1.418457
2009-03-03 07:47:09 51°13.731 2°55.739 -999 0.084916 0.472398 -1.418457
2009-03-03 07:47:14 51°13.736 2°55.733 -999 0.084916 0.472407 -1.418457
2009-03-03 07:47:19 51°13.741 2°55.726 -999 0.084916 0.472398 -1.383633
2009-03-03 07:47:24 51°13.747 2°55.719 -999 0.084916 0.472398 -1.383633
2009-03-03 07:47:29 51°13.754 2°55.71 -999 0.084916 0.472407 -1.418457
2009-03-03 07:47:33 51°13.76 2°55.703 -999 0.084916 0.472407 -1.418457
2009-03-03 07:47:38 51°13.768 2°55.694 -999 0.084916 0.472407 -1.418457
2009-03-03 07:47:42 51°13.775 2°55.686 -999 0.084916 0.472407 -1.418457
2009-03-03 07:47:48 51°13.786 2°55.675 -999 0.084916 0.472416 -1.418457
2009-03-03 07:47:52 51°13.794 2°55.667 -999 0.084916 0.472416 -1.418457
2009-03-03 07:47:57 51°13.804 2°55.658 -999 0.084916 0.472416 -1.418457
2009-03-03 07:48:02 51°13.815 2°55.648 -999 0.084916 0.472416 -1.418457
2009-03-03 07:48:07 51°13.826 2°55.639 -999 0.084916 0.472416 -1.418457
2009-03-03 07:48:11 51°13.835 2°55.632 -999 0.084916 0.472416 -1.418457
2009-03-03 07:48:16 51°13.846 2°55.623 -999 0.084916 0.472416 -1.418457
2009-03-03 07:48:21 51°13.858 2°55.614 -999 0.084916 0.472416 -1.418457
2009-03-03 07:48:26 51°13.87 2°55.605 -999 0.084916 0.472416 -1.418457
2009-03-03 07:48:30 51°13.879 2°55.597 -999 0.084916 0.472407 -1.418457
2009-03-03 07:48:36 51°13.894 2°55.586 -999 0.084916 0.472407 -1.418457
2009-03-03 07:48:41 51°13.906 2°55.577 -999 0.084916 0.472407 -1.418457
2009-03-03 07:48:46 51°13.919 2°55.568 -999 0.084916 0.472407 -1.418457
2009-03-03 07:48:50 51°13.929 2°55.56 -999 0.084916 0.472407 -1.418457
2009-03-03 07:48:56 51°13.944 2°55.55 -999 0.084916 0.472398 -1.418457
2009-03-03 07:49:01 51°13.956 2°55.54 -999 0.084916 0.472398 -1.418457
2009-03-03 07:49:06 51°13.969 2°55.531 -999 0.084916 0.47239 -1.418457
2009-03-03 07:49:10 51°13.979 2°55.524 -999 0.084916 0.47239 -1.383633
2009-03-03 07:49:16 51°13.994 2°55.512 -999 0.084916 0.472381 -1.418457
2009-03-03 07:49:21 51°14.007 2°55.504 -999 0.084916 0.472381 -1.418457
2009-03-03 07:49:26 51°14.019 2°55.495 -999 0.084916 0.47239 -1.418457
2009-03-03 07:49:30 51°14.029 2°55.487 -999 0.084916 0.472381 -1.418457
2009-03-03 07:49:36 51°14.044 2°55.476 -999 0.084916 0.472381 -1.418457
2009-03-03 07:49:41 51°14.057 2°55.468 -999 0.084916 0.472381 -1.418457
2009-03-03 07:49:46 51°14.07 2°55.458 -999 0.084916 0.472381 -1.418457
2009-03-03 07:49:50 51°14.08 2°55.451 -999 0.084916 0.472381 -1.418457
2009-03-03 07:49:56 51°14.095 2°55.439 -999 0.084916 0.472381 -1.418457
2009-03-03 07:50:01 51°14.107 2°55.43 -999 0.084916 0.47239 -1.418457
2009-03-03 07:50:05 51°14.117 2°55.421 -999 0.084916 0.47239 -1.418457
2009-03-03 07:50:10 51°14.129 2°55.41 -999 0.084916 0.472381 -1.418457
2009-03-03 07:50:16 51°14.144 2°55.398 -999 0.084916 0.47239 -1.418457
2009-03-03 07:50:21 51°14.156 2°55.386 -999 0.084916 0.47239 -1.418457
2009-03-03 07:50:25 51°14.165 2°55.376 -999 0.084916 0.47239 -1.418457
2009-03-03 07:50:31 51°14.179 2°55.362 -999 0.084916 0.47239 -1.418457
2009-03-03 07:50:36 51°14.191 2°55.349 -999 0.084916 0.472398 -1.383633
2009-03-03 07:50:41 51°14.203 2°55.335 -999 0.084916 0.472398 -1.418457
2009-03-03 07:50:46 51°14.214 2°55.322 -999 0.084916 0.472398 -1.418457
2009-03-03 07:50:50 51°14.223 2°55.311 -999 0.084916 0.472398 -1.418457
2009-03-03 07:50:56 51°14.236 2°55.293 -999 0.084916 0.472407 -1.418457
2009-03-03 07:51:01 51°14.247 2°55.278 -999 0.084916 0.472407 -1.418457
2009-03-03 07:51:06 51°14.258 2°55.263 -999 0.084916 0.472416 -1.418457
2009-03-03 07:51:10 51°14.266 2°55.25 -999 0.084916 0.472416 -1.418457
2009-03-03 07:51:16 51°14.278 2°55.23 -999 0.084916 0.472424 -1.418457
2009-03-03 07:51:21 51°14.288 2°55.213 -999 0.084916 0.472424 -1.418457
2009-03-03 07:51:26 51°14.298 2°55.196 -999 0.084916 0.472416 -1.418457
2009-03-03 07:51:30 51°14.307 2°55.183 -999 0.084916 0.472424 -1.418457
2009-03-03 07:51:36 51°14.319 2°55.162 -999 0.084916 0.472424 -1.383633
2009-03-03 07:51:41 51°14.329 2°55.144 -999 0.084916 0.472433 -1.418457
2009-03-03 07:51:46 51°14.339 2°55.127 -999 0.084916 0.472441 -1.418457
2009-03-03 07:51:50 51°14.347 2°55.113 -999 0.084916 0.472441 -1.418457
2009-03-03 07:51:56 51°14.36 2°55.092 -999 0.084916 0.472441 -1.418457
2009-03-03 07:52:01 51°14.371 2°55.075 -999 0.084916 0.47245 -1.383633
2009-03-03 07:52:06 51°14.381 2°55.058 -999 0.084916 0.472467 -1.418457
2009-03-03 07:52:11 51°14.392 2°55.041 -999 0.084916 0.472475 -1.418457
2009-03-03 07:52:16 51°14.403 2°55.024 -999 0.084916 0.472475 -1.418457
2009-03-03 07:52:21 51°14.414 2°55.007 -999 0.084916 0.472475 -1.418457
2009-03-03 07:52:26 51°14.426 2°54.992 -999 0.084916 0.472484 -1.418457
2009-03-03 07:52:31 51°14.438 2°54.977 -999 0.084916 0.472467 -1.418457
2009-03-03 07:52:36 51°14.45 2°54.963 -999 0.084916 0.472526 -1.418457
2009-03-03 07:52:41 51°14.461 2°54.945 -999 0.084916 0.472492 -1.418457
2009-03-03 07:52:46 51°14.473 2°54.931 -999 0.084916 0.472535 -1.418457
2009-03-03 07:52:50 51°14.482 2°54.917 -999 0.084916 0.472535 -1.418457
2009-03-03 07:52:56 51°14.496 2°54.897 -999 0.084916 0.472509 -1.418457
2009-03-03 07:53:01 51°14.507 2°54.879 -999 0.084916 0.472526 -1.418457
2009-03-03 07:53:06 51°14.518 2°54.862 -999 0.084916 0.472526 -1.418457
2009-03-03 07:53:10 51°14.527 2°54.848 -999 0.084916 0.472526 -1.418457
2009-03-03 07:53:16 51°14.541 2°54.825 -999 0.084916 0.472543 -1.418457
2009-03-03 07:53:21 51°14.552 2°54.807 -999 0.084916 0.472543 -1.418457
2009-03-03 07:53:25 51°14.56 2°54.791 -999 0.084916 0.472535 -1.418457
2009-03-03 07:53:30 51°14.571 2°54.772 -999 0.084916 0.472535 -1.418457
2009-03-03 07:53:36 51°14.584 2°54.749 -999 0.084916 0.472526 -1.418457
2009-03-03 07:53:41 51°14.595 2°54.729 -999 0.084916 0.472535 -1.418457
2009-03-03 07:53:46 51°14.607 2°54.709 -999 0.084916 0.472526 -1.418457
2009-03-03 07:53:51 51°14.618 2°54.689 -999 0.084916 0.472526 -1.418457
2009-03-03 07:53:56 51°14.629 2°54.668 -999 0.084916 0.472543 -1.418457
2009-03-03 07:54:01 51°14.64 2°54.647 -999 0.084916 0.472543 -1.418457
2009-03-03 07:54:05 51°14.649 2°54.631 -999 0.084916 0.472543 -1.418457
2009-03-03 07:54:10 51°14.661 2°54.61 -999 0.084916 0.472543 -1.418457
2009-03-03 07:54:16 51°14.674 2°54.585 -999 0.084916 0.472552 -1.418457
2009-03-03 07:54:21 51°14.686 2°54.564 -999 0.084916 0.472552 -1.418457
2009-03-03 07:54:26 51°14.698 2°54.544 -999 0.084916 0.472543 -1.418457
2009-03-03 07:54:31 51°14.709 2°54.523 -999 0.084916 0.472543 -1.418457
2009-03-03 07:54:36 51°14.72 2°54.502 -999 0.084916 0.472561 -1.418457
2009-03-03 07:54:41 51°14.731 2°54.48 -999 0.084916 0.472543 -1.418457
2009-03-03 07:54:46 51°14.742 2°54.458 -999 0.084916 0.472561 -1.383633
2009-03-03 07:54:50 51°14.75 2°54.44 -999 0.084916 0.472561 -1.383633
2009-03-03 07:54:56 51°14.76 2°54.411 -999 0.084916 0.472561 -1.418457
2009-03-03 07:55:01 51°14.768 2°54.387 -999 0.084916 0.472569 -1.418457
2009-03-03 07:55:06 51°14.775 2°54.363 -999 0.084916 0.472569 -1.418457
2009-03-03 07:55:10 51°14.781 2°54.342 -999 0.084916 0.472569 -1.418457
2009-03-03 07:55:16 51°14.788 2°54.311 -999 0.084916 0.472561 -1.418457
2009-03-03 07:55:21 51°14.793 2°54.285 -999 0.084916 0.472561 -1.418457
2009-03-03 07:55:25 51°14.797 2°54.264 -999 0.084916 0.472561 -1.383633
2009-03-03 07:55:30 51°14.801 2°54.237 -999 0.084916 0.472569 -1.383633
2009-03-03 07:55:36 51°14.807 2°54.205 -999 0.084916 0.472578 -1.418457
2009-03-03 07:55:41 51°14.81 2°54.179 -999 0.084916 0.472569 -1.418457
2009-03-03 07:55:46 51°14.814 2°54.152 -999 0.084916 0.472586 -1.418457
2009-03-03 07:55:50 51°14.817 2°54.13 -999 0.084916 0.472586 -1.418457
2009-03-03 07:55:56 51°14.821 2°54.098 -999 0.084916 0.472586 -1.418457
2009-03-03 07:56:01 51°14.825 2°54.071 -999 0.084916 0.472603 -1.418457
2009-03-03 07:56:06 51°14.828 2°54.044 -999 0.084916 0.472612 -1.418457
2009-03-03 07:56:10 51°14.831 2°54.022 -999 0.084916 0.472612 -1.418457
2009-03-03 07:56:16 51°14.835 2°53.99 -999 0.084916 0.47262 -1.383633
2009-03-03 07:56:21 51°14.838 2°53.963 -999 0.084916 0.47262 -1.383633
2009-03-03 07:56:25 51°14.841 2°53.941 -999 0.084916 0.472629 -1.418457
2009-03-03 07:56:30 51°14.845 2°53.914 -999 0.084916 0.472629 -1.418457
2009-03-03 07:56:36 51°14.849 2°53.881 -999 0.084916 0.472637 -1.418457
2009-03-03 07:56:41 51°14.853 2°53.854 -999 0.084916 0.472646 -1.418457
2009-03-03 07:56:46 51°14.857 2°53.827 -999 0.084916 0.472654 -1.418457
2009-03-03 07:56:50 51°14.86 2°53.805 -999 0.084916 0.472654 -1.418457
2009-03-03 07:56:56 51°14.864 2°53.772 -999 0.084916 0.472671 -1.383633
2009-03-03 07:57:01 51°14.868 2°53.745 -999 0.084916 0.472671 -1.383633
2009-03-03 07:57:06 51°14.872 2°53.719 -999 0.084916 0.472697 -1.383633
2009-03-03 07:57:11 51°14.876 2°53.692 -999 0.084916 0.472697 -1.418457
2009-03-03 07:57:16 51°14.881 2°53.666 -999 0.084916 0.472714 -1.418457
2009-03-03 07:57:21 51°14.886 2°53.639 -999 0.084916 0.472714 -1.418457
2009-03-03 07:57:25 51°14.89 2°53.619 -999 0.084916 0.472723 -1.418457
2009-03-03 07:57:30 51°14.896 2°53.593 -999 0.084916 0.472731 -1.418457
2009-03-03 07:57:36 51°14.904 2°53.562 -999 0.084916 0.47274 -1.383633
2009-03-03 07:57:41 51°14.91 2°53.536 -999 0.084916 0.472748 -1.418457
2009-03-03 07:57:46 51°14.917 2°53.511 -999 0.084916 0.472765 -1.418457
2009-03-03 07:57:50 51°14.922 2°53.49 -999 0.084916 0.472765 -1.418457
2009-03-03 07:57:56 51°14.929 2°53.459 -999 0.084916 0.472774 -1.418457
2009-03-03 07:58:01 51°14.934 2°53.433 -999 0.084916 0.472765 -1.383633
2009-03-03 07:58:05 51°14.939 2°53.412 -999 0.084916 0.472774 -1.383633
2009-03-03 07:58:10 51°14.946 2°53.386 -999 0.084916 0.472765 -1.418457
2009-03-03 07:58:16 51°14.953 2°53.356 -999 0.084916 0.472783 -1.383633
2009-03-03 07:58:21 51°14.96 2°53.33 -999 0.084916 0.472783 -1.383633
2009-03-03 07:58:26 51°14.966 2°53.305 -999 0.084916 0.472783 -1.418457
2009-03-03 07:58:31 51°14.973 2°53.28 -999 0.084916 0.472791 -1.418457
2009-03-03 07:58:36 51°14.98 2°53.254 -999 0.084916 0.472791 -1.418457
2009-03-03 07:58:41 51°14.987 2°53.229 -999 0.084916 0.4728 -1.418457
2009-03-03 07:58:45 51°14.992 2°53.209 -999 0.084916 0.4728 -1.418457
2009-03-03 07:58:50 51°14.998 2°53.183 -999 0.084916 0.4728 -1.418457
2009-03-03 07:58:56 51°15.005 2°53.153 -999 0.084916 0.472808 -1.418457
2009-03-03 07:59:01 51°15.011 2°53.127 -999 0.084916 0.472808 -1.418457
2009-03-03 07:59:05 51°15.016 2°53.106 -999 0.084916 0.472817 -1.383633
2009-03-03 07:59:11 51°15.023 2°53.075 -999 0.084916 0.472825 -1.383633
2009-03-03 07:59:16 51°15.029 2°53.049 -999 0.084916 0.472825 -1.418457
2009-03-03 07:59:21 51°15.034 2°53.023 -999 0.084916 0.472825 -1.418457
2009-03-03 07:59:25 51°15.039 2°53.003 -999 0.084916 0.472825 -1.383633
2009-03-03 07:59:31 51°15.045 2°52.971 -999 0.084916 0.472834 -1.418457
2009-03-03 07:59:36 51°15.051 2°52.945 -999 0.084916 0.472842 -1.418457
2009-03-03 07:59:41 51°15.056 2°52.919 -999 0.084813 0.472256 -1.418457
2009-03-03 07:59:45 51°15.06 2°52.898 -999 0.084813 0.472256 -1.418457
2009-03-03 07:59:50 51°15.065 2°52.871 -999 0.084813 0.472256 -1.418457
2009-03-03 07:59:56 51°15.071 2°52.84 -999 0.084813 0.472265 -1.418457
2009-03-03 08:00:01 51°15.077 2°52.814 -999 0.084813 0.472273 -1.418457
2009-03-03 08:00:05 51°15.081 2°52.793 -999 0.084813 0.472291 -1.418457
2009-03-03 08:00:10 51°15.086 2°52.766 -999 0.084813 0.472299 -1.418457
2009-03-03 08:00:16 51°15.093 2°52.735 -999 0.084813 0.472308 -1.418457
2009-03-03 08:00:21 51°15.098 2°52.708 -999 0.084813 0.472308 -1.418457
2009-03-03 08:00:26 51°15.103 2°52.682 -999 0.084813 0.472316 -1.418457
2009-03-03 08:00:30 51°15.107 2°52.661 -999 0.084813 0.472333 -1.418457
2009-03-03 08:00:36 51°15.114 2°52.629 -999 0.084813 0.472342 -1.418457
2009-03-03 08:00:41 51°15.119 2°52.603 -999 0.084813 0.472359 -1.383633
2009-03-03 08:00:45 51°15.123 2°52.582 -999 0.084813 0.472367 -1.383633
2009-03-03 08:00:50 51°15.129 2°52.556 -999 0.084813 0.472367 -1.383633
2009-03-03 08:00:56 51°15.135 2°52.524 -999 0.084813 0.472376 -1.383633
2009-03-03 08:01:01 51°15.141 2°52.498 -999 0.084813 0.472393 -1.418457
2009-03-03 08:01:06 51°15.146 2°52.472 -999 0.084813 0.472402 -1.383633
2009-03-03 08:01:11 51°15.152 2°52.445 -999 0.084813 0.472419 -1.383633
2009-03-03 08:01:16 51°15.158 2°52.419 -999 0.084813 0.472436 -1.418457
2009-03-03 08:01:21 51°15.163 2°52.393 -999 0.084813 0.472436 -1.418457
2009-03-03 08:01:25 51°15.168 2°52.372 -999 0.084813 0.472444 -1.418457
2009-03-03 08:01:30 51°15.173 2°52.346 -999 0.084813 0.472453 -1.418457
2009-03-03 08:01:36 51°15.18 2°52.314 -999 0.084813 0.472461 -1.418457
2009-03-03 08:01:41 51°15.186 2°52.288 -999 0.084813 0.47247 -1.418457
2009-03-03 08:01:46 51°15.192 2°52.262 -999 0.084813 0.472487 -1.418457
2009-03-03 08:01:50 51°15.196 2°52.241 -999 0.084813 0.472487 -1.418457
2009-03-03 08:01:56 51°15.203 2°52.209 -999 0.084813 0.472495 -1.383633
2009-03-03 08:02:01 51°15.209 2°52.183 -999 0.084813 0.472495 -1.418457
2009-03-03 08:02:05 51°15.213 2°52.162 -999 0.084813 0.472513 -1.418457
2009-03-03 08:02:11 51°15.22 2°52.131 -999 0.084813 0.472521 -1.418457
2009-03-03 08:02:16 51°15.226 2°52.104 -999 0.084813 0.472521 -1.418457
2009-03-03 08:02:21 51°15.232 2°52.078 -999 0.084813 0.472521 -1.418457
2009-03-03 08:02:26 51°15.237 2°52.051 -999 0.084813 0.472547 -1.383633
2009-03-03 08:02:30 51°15.24 2°52.03 -999 0.084813 0.472521 -1.418457
2009-03-03 08:02:36 51°15.247 2°51.998 -999 0.084813 0.472547 -1.383633
2009-03-03 08:02:41 51°15.251 2°51.971 -999 0.084813 0.472538 -1.418457
2009-03-03 08:02:45 51°15.255 2°51.949 -999 0.084813 0.472555 -1.418457
2009-03-03 08:02:50 51°15.259 2°51.922 -999 0.084813 0.472555 -1.418457
2009-03-03 08:02:56 51°15.264 2°51.89 -999 0.084813 0.472555 -1.418457
2009-03-03 08:03:01 51°15.268 2°51.863 -999 0.084813 0.472564 -1.418457
2009-03-03 08:03:06 51°15.273 2°51.835 -999 0.084813 0.472572 -1.418457
2009-03-03 08:03:10 51°15.276 2°51.814 -999 0.084813 0.472581 -1.383633
2009-03-03 08:03:16 51°15.281 2°51.781 -999 0.084813 0.472589 -1.418457
2009-03-03 08:03:21 51°15.285 2°51.754 -999 0.084813 0.472589 -1.418457
2009-03-03 08:03:26 51°15.289 2°51.726 -999 0.084813 0.472589 -1.418457
2009-03-03 08:03:31 51°15.293 2°51.699 -999 0.084813 0.472598 -1.418457
2009-03-03 08:03:36 51°15.298 2°51.672 -999 0.084813 0.472607 -1.418457
2009-03-03 08:03:41 51°15.302 2°51.645 -999 0.084813 0.472615 -1.418457
2009-03-03 08:03:45 51°15.305 2°51.623 -999 0.084813 0.472624 -1.383633
2009-03-03 08:03:50 51°15.309 2°51.596 -999 0.084813 0.472624 -1.383633
2009-03-03 08:03:56 51°15.314 2°51.563 -999 0.084813 0.472624 -1.383633
2009-03-03 08:04:01 51°15.318 2°51.535 -999 0.084813 0.472632 -1.418457
2009-03-03 08:04:05 51°15.322 2°51.513 -999 0.084813 0.472641 -1.418457
2009-03-03 08:04:11 51°15.327 2°51.481 -999 0.084813 0.472649 -1.418457
2009-03-03 08:04:16 51°15.331 2°51.453 -999 0.084813 0.472658 -1.418457
2009-03-03 08:04:21 51°15.335 2°51.426 -999 0.084813 0.472658 -1.418457
2009-03-03 08:04:25 51°15.339 2°51.404 -999 0.084813 0.472666 -1.383633
2009-03-03 08:04:31 51°15.343 2°51.371 -999 0.084813 0.472675 -1.418457
2009-03-03 08:04:36 51°15.348 2°51.344 -999 0.084813 0.472675 -1.418457
2009-03-03 08:04:41 51°15.352 2°51.317 -999 0.084813 0.472684 -1.418457
2009-03-03 08:04:46 51°15.356 2°51.289 -999 0.084813 0.472701 -1.418457
2009-03-03 08:04:50 51°15.359 2°51.268 -999 0.084813 0.472701 -1.418457
2009-03-03 08:04:56 51°15.363 2°51.235 -999 0.084813 0.472692 -1.418457
2009-03-03 08:05:01 51°15.367 2°51.207 -999 0.084813 0.472726 -1.383633
2009-03-03 08:05:05 51°15.368 2°51.185 -999 0.084813 0.472709 -1.418457
2009-03-03 08:05:10 51°15.37 2°51.158 -999 0.084813 0.472735 -1.418457
2009-03-03 08:05:16 51°15.372 2°51.124 -999 0.084813 0.472726 -1.418457
2009-03-03 08:05:21 51°15.373 2°51.097 -999 0.084813 0.472726 -1.418457
2009-03-03 08:05:26 51°15.373 2°51.069 -999 0.084813 0.472743 -1.383633
2009-03-03 08:05:31 51°15.374 2°51.041 -999 0.084813 0.472743 -1.418457
2009-03-03 08:05:36 51°15.374 2°51.013 -999 0.084813 0.472752 -1.418457
2009-03-03 08:05:41 51°15.374 2°50.985 -999 0.084813 0.472761 -1.383633
2009-03-03 08:05:45 51°15.374 2°50.963 -999 0.084813 0.472778 -1.383633
2009-03-03 08:05:50 51°15.373 2°50.935 -999 0.084813 0.472778 -1.383633
2009-03-03 08:05:56 51°15.373 2°50.902 -999 0.084813 0.472786 -1.418457
2009-03-03 08:06:01 51°15.373 2°50.874 -999 0.084813 0.472795 -1.383633
2009-03-03 08:06:05 51°15.373 2°50.852 -999 0.084813 0.472795 -1.418457
2009-03-03 08:06:11 51°15.372 2°50.819 -999 0.084813 0.472812 -1.418457
2009-03-03 08:06:16 51°15.372 2°50.791 -999 0.084813 0.472829 -1.383633
2009-03-03 08:06:21 51°15.372 2°50.763 -999 0.084813 0.472829 -1.383633
2009-03-03 08:06:26 51°15.371 2°50.735 -999 0.084813 0.472838 -1.418457
2009-03-03 08:06:31 51°15.371 2°50.707 -999 0.084813 0.472838 -1.383633
2009-03-03 08:06:36 51°15.371 2°50.679 -999 0.084813 0.472855 -1.418457
2009-03-03 08:06:41 51°15.369 2°50.652 -999 0.084813 0.472863 -1.418457
2009-03-03 08:06:45 51°15.369 2°50.63 -999 0.084813 0.47288 -1.383633
2009-03-03 08:06:50 51°15.368 2°50.602 -999 0.084813 0.47288 -1.383633
2009-03-03 08:06:56 51°15.366 2°50.569 -999 0.084813 0.47288 -1.383633
2009-03-03 08:07:01 51°15.365 2°50.541 -999 0.084813 0.472897 -1.383633
2009-03-03 08:07:06 51°15.363 2°50.514 -999 0.084813 0.472906 -1.383633
2009-03-03 08:07:10 51°15.362 2°50.492 -999 0.084813 0.472923 -1.383633
2009-03-03 08:07:16 51°15.36 2°50.459 -999 0.084813 0.472932 -1.418457
2009-03-03 08:07:21 51°15.359 2°50.431 -999 0.084813 0.472932 -1.418457
2009-03-03 08:07:26 51°15.357 2°50.403 -999 0.084813 0.472932 -1.418457
2009-03-03 08:07:30 51°15.355 2°50.381 -999 0.084813 0.472949 -1.418457
2009-03-03 08:07:36 51°15.354 2°50.348 -999 0.084813 0.472949 -1.418457
2009-03-03 08:07:41 51°15.352 2°50.321 -999 0.084813 0.472966 -1.383633
2009-03-03 08:07:45 51°15.351 2°50.299 -999 0.084813 0.472975 -1.383633
2009-03-03 08:07:50 51°15.35 2°50.271 -999 0.084813 0.472975 -1.383633
2009-03-03 08:07:56 51°15.348 2°50.238 -999 0.084813 0.472983 -1.418457
2009-03-03 08:08:01 51°15.346 2°50.211 -999 0.084813 0.472992 -1.383633
2009-03-03 08:08:06 51°15.345 2°50.183 -999 0.084813 0.473 -1.383633
2009-03-03 08:08:11 51°15.343 2°50.155 -999 0.084813 0.473009 -1.383633
2009-03-03 08:08:16 51°15.342 2°50.128 -999 0.084813 0.473009 -1.418457
2009-03-03 08:08:21 51°15.34 2°50.1 -999 0.084813 0.473009 -1.418457
2009-03-03 08:08:25 51°15.339 2°50.078 -999 0.084813 0.473017 -1.383633
2009-03-03 08:08:30 51°15.337 2°50.051 -999 0.084813 0.473026 -1.383633
2009-03-03 08:08:36 51°15.335 2°50.018 -999 0.084813 0.473035 -1.383633
2009-03-03 08:08:41 51°15.334 2°49.99 -999 0.084813 0.473043 -1.418457
2009-03-03 08:08:45 51°15.333 2°49.968 -999 0.084813 0.473052 -1.383633
2009-03-03 08:08:51 51°15.331 2°49.935 -999 0.084813 0.473052 -1.383633
2009-03-03 08:08:56 51°15.329 2°49.907 -999 0.084813 0.47306 -1.418457
2009-03-03 08:09:01 51°15.328 2°49.88 -999 0.084813 0.473069 -1.383633
2009-03-03 08:09:06 51°15.327 2°49.852 -999 0.084813 0.473094 -1.418457
2009-03-03 08:09:10 51°15.325 2°49.83 -999 0.084813 0.473086 -1.383633
2009-03-03 08:09:16 51°15.323 2°49.797 -999 0.084813 0.473103 -1.383633
2009-03-03 08:09:21 51°15.32 2°49.77 -999 0.084813 0.473103 -1.383633
2009-03-03 08:09:25 51°15.319 2°49.748 -999 0.084813 0.473094 -1.383633
2009-03-03 08:09:30 51°15.316 2°49.721 -999 0.084813 0.473112 -1.418457
2009-03-03 08:09:36 51°15.314 2°49.688 -999 0.084813 0.473112 -1.383633
2009-03-03 08:09:41 51°15.312 2°49.661 -999 0.084813 0.47312 -1.383633
2009-03-03 08:09:46 51°15.31 2°49.633 -999 0.084813 0.47312 -1.418457
2009-03-03 08:09:51 51°15.308 2°49.606 -999 0.084813 0.47312 -1.418457
2009-03-03 08:09:56 51°15.306 2°49.578 -999 0.084813 0.473129 -1.383633
2009-03-03 08:10:01 51°15.304 2°49.551 -999 0.084813 0.473137 -1.418457
2009-03-03 08:10:05 51°15.302 2°49.529 -999 0.084813 0.473137 -1.383633
2009-03-03 08:10:10 51°15.3 2°49.501 -999 0.084813 0.473137 -1.383633
2009-03-03 08:10:16 51°15.297 2°49.468 -999 0.084813 0.473146 -1.383633
2009-03-03 08:10:21 51°15.296 2°49.441 -999 0.084813 0.473146 -1.383633
2009-03-03 08:10:25 51°15.294 2°49.419 -999 0.084813 0.473154 -1.418457
2009-03-03 08:10:31 51°15.292 2°49.386 -999 0.084813 0.473154 -1.383633
2009-03-03 08:10:36 51°15.29 2°49.358 -999 0.084813 0.473154 -1.418457
2009-03-03 08:10:41 51°15.288 2°49.331 -999 0.084813 0.473154 -1.418457
2009-03-03 08:10:46 51°15.287 2°49.303 -999 0.084813 0.473154 -1.418457
2009-03-03 08:10:51 51°15.286 2°49.275 -999 0.084813 0.473154 -1.418457
2009-03-03 08:10:56 51°15.285 2°49.248 -999 0.084813 0.473172 -1.418457
2009-03-03 08:11:01 51°15.283 2°49.22 -999 0.084813 0.47318 -1.383633
2009-03-03 08:11:05 51°15.282 2°49.198 -999 0.084813 0.47318 -1.383633
2009-03-03 08:11:10 51°15.28 2°49.171 -999 0.084813 0.47318 -1.383633
2009-03-03 08:11:16 51°15.278 2°49.138 -999 0.084813 0.473189 -1.383633
2009-03-03 08:11:21 51°15.277 2°49.11 -999 0.084813 0.473189 -1.383633
2009-03-03 08:11:25 51°15.275 2°49.088 -999 0.084813 0.473197 -1.383633
2009-03-03 08:11:31 51°15.273 2°49.055 -999 0.084813 0.473197 -1.383633
2009-03-03 08:11:36 51°15.272 2°49.027 -999 0.084813 0.473197 -1.383633
2009-03-03 08:11:41 51°15.27 2°49 -999 0.084813 0.473206 -1.383633
2009-03-03 08:11:46 51°15.268 2°48.972 -999 0.084813 0.473206 -1.418457
2009-03-03 08:11:50 51°15.267 2°48.949 -999 0.084813 0.473206 -1.418457
2009-03-03 08:11:56 51°15.266 2°48.916 -999 0.084813 0.473215 -1.383633
2009-03-03 08:12:01 51°15.264 2°48.889 -999 0.084813 0.473215 -1.418457
2009-03-03 08:12:05 51°15.264 2°48.867 -999 0.084813 0.473232 -1.383633
2009-03-03 08:12:10 51°15.263 2°48.839 -999 0.084813 0.47324 -1.383633
2009-03-03 08:12:16 51°15.262 2°48.806 -999 0.084813 0.473249 -1.383633
2009-03-03 08:12:21 51°15.261 2°48.778 -999 0.084813 0.473249 -1.383633
2009-03-03 08:12:26 51°15.26 2°48.751 -999 0.084813 0.473249 -1.383633
2009-03-03 08:12:31 51°15.259 2°48.723 -999 0.084813 0.473257 -1.418457
2009-03-03 08:12:36 51°15.258 2°48.695 -999 0.084813 0.473275 -1.383633
2009-03-03 08:12:41 51°15.257 2°48.668 -999 0.084813 0.473266 -1.383633
2009-03-03 08:12:45 51°15.256 2°48.645 -999 0.084813 0.473266 -1.383633
2009-03-03 08:12:50 51°15.254 2°48.618 -999 0.084813 0.473266 -1.383633
2009-03-03 08:12:56 51°15.252 2°48.584 -999 0.084813 0.473275 -1.418457
2009-03-03 08:13:01 51°15.251 2°48.557 -999 0.084813 0.473266 -1.418457
2009-03-03 08:13:05 51°15.25 2°48.534 -999 0.084813 0.473275 -1.383633
2009-03-03 08:13:11 51°15.249 2°48.501 -999 0.084813 0.473283 -1.383633
2009-03-03 08:13:16 51°15.248 2°48.473 -999 0.084813 0.473292 -1.383633
2009-03-03 08:13:21 51°15.246 2°48.445 -999 0.084813 0.473292 -1.383633
2009-03-03 08:13:26 51°15.244 2°48.418 -999 0.084813 0.473283 -1.418457
2009-03-03 08:13:30 51°15.243 2°48.395 -999 0.084813 0.473292 -1.418457
2009-03-03 08:13:36 51°15.242 2°48.362 -999 0.084813 0.473292 -1.418457
2009-03-03 08:13:41 51°15.24 2°48.334 -999 0.084813 0.4733 -1.383633
2009-03-03 08:13:46 51°15.239 2°48.307 -999 0.084813 0.473309 -1.383633
2009-03-03 08:13:50 51°15.238 2°48.285 -999 0.084813 0.473309 -1.383633
2009-03-03 08:13:56 51°15.236 2°48.251 -999 0.084813 0.473309 -1.383633
2009-03-03 08:14:01 51°15.235 2°48.224 -999 0.084813 0.473317 -1.418457
2009-03-03 08:14:05 51°15.234 2°48.201 -999 0.084813 0.473317 -1.383633
2009-03-03 08:14:10 51°15.232 2°48.174 -999 0.084813 0.473326 -1.383633
2009-03-03 08:14:16 51°15.231 2°48.14 -999 0.084813 0.473335 -1.418457
2009-03-03 08:14:21 51°15.229 2°48.113 -999 0.084813 0.473335 -1.418457
2009-03-03 08:14:26 51°15.227 2°48.085 -999 0.084813 0.473335 -1.383633
2009-03-03 08:14:30 51°15.226 2°48.063 -999 0.084813 0.473343 -1.383633
2009-03-03 08:14:36 51°15.224 2°48.03 -999 0.084813 0.473343 -1.418457
2009-03-03 08:14:41 51°15.222 2°48.002 -999 0.084813 0.473352 -1.383633
2009-03-03 08:14:46 51°15.219 2°47.975 -999 0.084813 0.47336 -1.383633
2009-03-03 08:14:51 51°15.217 2°47.948 -999 0.084813 0.47336 -1.383633
2009-03-03 08:14:56 51°15.215 2°47.92 -999 0.084813 0.473369 -1.383633
2009-03-03 08:15:01 51°15.213 2°47.893 -999 0.084813 0.473369 -1.418457
2009-03-03 08:15:05 51°15.212 2°47.871 -999 0.084813 0.473378 -1.418457
2009-03-03 08:15:10 51°15.21 2°47.843 -999 0.084813 0.473386 -1.383633
2009-03-03 08:15:16 51°15.208 2°47.81 -999 0.084813 0.473395 -1.418457
2009-03-03 08:15:21 51°15.206 2°47.783 -999 0.084813 0.473395 -1.418457
2009-03-03 08:15:25 51°15.204 2°47.761 -999 0.084813 0.473403 -1.383633
2009-03-03 08:15:31 51°15.202 2°47.728 -999 0.084813 0.473412 -1.383633
2009-03-03 08:15:36 51°15.2 2°47.7 -999 0.084813 0.47342 -1.383633
2009-03-03 08:15:41 51°15.198 2°47.673 -999 0.084813 0.473438 -1.383633
2009-03-03 08:15:46 51°15.197 2°47.646 -999 0.084813 0.47342 -1.418457
2009-03-03 08:15:50 51°15.196 2°47.624 -999 0.084813 0.47342 -1.418457
2009-03-03 08:15:56 51°15.196 2°47.591 -999 0.084813 0.473446 -1.383633
2009-03-03 08:16:01 51°15.195 2°47.563 -999 0.084813 0.473438 -1.418457
2009-03-03 08:16:05 51°15.196 2°47.541 -999 0.084813 0.473463 -1.418457
2009-03-03 08:16:11 51°15.197 2°47.508 -999 0.084813 0.473472 -1.418457
2009-03-03 08:16:16 51°15.198 2°47.481 -999 0.084813 0.473481 -1.418457
2009-03-03 08:16:21 51°15.198 2°47.453 -999 0.084813 0.473481 -1.418457
2009-03-03 08:16:26 51°15.2 2°47.425 -999 0.084813 0.473481 -1.418457
2009-03-03 08:16:30 51°15.201 2°47.403 -999 0.084813 0.473498 -1.383633
2009-03-03 08:16:36 51°15.202 2°47.37 -999 0.084813 0.473498 -1.383633
2009-03-03 08:16:41 51°15.204 2°47.342 -999 0.084813 0.473506 -1.383633
2009-03-03 08:16:46 51°15.206 2°47.314 -999 0.084813 0.473506 -1.383633
2009-03-03 08:16:51 51°15.207 2°47.287 -999 0.084813 0.473506 -1.383633
2009-03-03 08:16:56 51°15.209 2°47.259 -999 0.084813 0.473523 -1.418457
2009-03-03 08:17:01 51°15.21 2°47.231 -999 0.084813 0.473523 -1.418457
2009-03-03 08:17:05 51°15.212 2°47.209 -999 0.084813 0.473541 -1.383633
2009-03-03 08:17:10 51°15.213 2°47.181 -999 0.084813 0.473532 -1.383633
2009-03-03 08:17:16 51°15.214 2°47.148 -999 0.084813 0.473541 -1.383633
2009-03-03 08:17:21 51°15.216 2°47.12 -999 0.084813 0.473541 -1.383633
2009-03-03 08:17:26 51°15.217 2°47.092 -999 0.084813 0.473541 -1.383633
2009-03-03 08:17:31 51°15.218 2°47.064 -999 0.084813 0.473549 -1.383633
2009-03-03 08:17:36 51°15.22 2°47.036 -999 0.084813 0.473558 -1.418457
2009-03-03 08:17:41 51°15.221 2°47.008 -999 0.084813 0.473566 -1.383633
2009-03-03 08:17:46 51°15.222 2°46.98 -999 0.084813 0.473566 -1.418457
2009-03-03 08:17:50 51°15.223 2°46.958 -999 0.084813 0.473566 -1.418457
2009-03-03 08:17:56 51°15.225 2°46.924 -999 0.084813 0.473566 -1.383633
2009-03-03 08:18:01 51°15.226 2°46.896 -999 0.084813 0.473558 -1.383633
2009-03-03 08:18:06 51°15.227 2°46.868 -999 0.084813 0.473566 -1.383633
2009-03-03 08:18:10 51°15.228 2°46.846 -999 0.084813 0.473566 -1.418457
2009-03-03 08:18:16 51°15.229 2°46.812 -999 0.084813 0.473566 -1.383633
2009-03-03 08:18:21 51°15.23 2°46.784 -999 0.084813 0.473566 -1.383633
2009-03-03 08:18:25 51°15.231 2°46.762 -999 0.084813 0.473566 -1.383633
2009-03-03 08:18:31 51°15.232 2°46.728 -999 0.084813 0.473575 -1.383633
2009-03-03 08:18:36 51°15.233 2°46.7 -999 0.084813 0.473575 -1.383633
2009-03-03 08:18:41 51°15.234 2°46.672 -999 0.084813 0.473575 -1.383633
2009-03-03 08:18:46 51°15.235 2°46.644 -999 0.084813 0.473584 -1.383633
2009-03-03 08:18:51 51°15.235 2°46.615 -999 0.084813 0.473584 -1.383633
2009-03-03 08:18:56 51°15.236 2°46.587 -999 0.084813 0.473575 -1.418457
2009-03-03 08:19:01 51°15.236 2°46.559 -999 0.084813 0.473584 -1.383633
2009-03-03 08:19:05 51°15.237 2°46.536 -999 0.08471 0.472987 -1.418457
2009-03-03 08:19:10 51°15.237 2°46.508 -999 0.08471 0.472996 -1.418457
2009-03-03 08:19:16 51°15.237 2°46.474 -999 0.08471 0.472996 -1.418457
2009-03-03 08:19:21 51°15.238 2°46.446 -999 0.08471 0.472996 -1.418457
2009-03-03 08:19:26 51°15.238 2°46.418 -999 0.084813 0.473609 -1.383633
2009-03-03 08:19:31 51°15.238 2°46.39 -999 0.08471 0.473013 -1.383633
2009-03-03 08:19:36 51°15.238 2°46.362 -999 0.08471 0.473022 -1.383633
2009-03-03 08:19:41 51°15.237 2°46.334 -999 0.08471 0.473013 -1.418457
2009-03-03 08:19:46 51°15.237 2°46.306 -999 0.08471 0.47303 -1.418457
2009-03-03 08:19:50 51°15.237 2°46.283 -999 0.08471 0.47303 -1.418457
2009-03-03 08:19:56 51°15.237 2°46.249 -999 0.08471 0.47303 -1.383633
2009-03-03 08:20:01 51°15.237 2°46.221 -999 0.08471 0.473039 -1.418457
2009-03-03 08:20:05 51°15.237 2°46.199 -999 0.08471 0.473056 -1.383633
2009-03-03 08:20:11 51°15.237 2°46.165 -999 0.08471 0.473065 -1.383633
2009-03-03 08:20:16 51°15.238 2°46.136 -999 0.08471 0.473065 -1.383633
2009-03-03 08:20:21 51°15.237 2°46.108 -999 0.08471 0.473065 -1.383633
2009-03-03 08:20:25 51°15.238 2°46.085 -999 0.08471 0.473082 -1.383633
2009-03-03 08:20:30 51°15.238 2°46.057 -999 0.08471 0.47309 -1.383633
2009-03-03 08:20:36 51°15.238 2°46.023 -999 0.08471 0.47309 -1.383633
2009-03-03 08:20:41 51°15.237 2°45.995 -999 0.08471 0.473099 -1.418457
2009-03-03 08:20:46 51°15.237 2°45.966 -999 0.08471 0.473099 -1.418457
2009-03-03 08:20:50 51°15.237 2°45.944 -999 0.08471 0.473099 -1.418457
2009-03-03 08:20:56 51°15.237 2°45.91 -999 0.08471 0.473108 -1.383633
2009-03-03 08:21:01 51°15.237 2°45.882 -999 0.08471 0.473108 -1.383633
2009-03-03 08:21:05 51°15.237 2°45.859 -999 0.08471 0.473116 -1.383633
2009-03-03 08:21:10 51°15.237 2°45.831 -999 0.08471 0.473116 -1.383633
2009-03-03 08:21:16 51°15.236 2°45.797 -999 0.08471 0.473116 -1.418457
2009-03-03 08:21:21 51°15.236 2°45.769 -999 0.08471 0.473116 -1.418457
2009-03-03 08:21:26 51°15.236 2°45.741 -999 0.08471 0.473116 -1.383633
2009-03-03 08:21:31 51°15.236 2°45.713 -999 0.08471 0.473125 -1.383633
2009-03-03 08:21:36 51°15.236 2°45.685 -999 0.08471 0.473116 -1.418457
2009-03-03 08:21:41 51°15.235 2°45.657 -999 0.08471 0.473125 -1.418457
2009-03-03 08:21:45 51°15.235 2°45.634 -999 0.08471 0.473125 -1.418457
2009-03-03 08:21:50 51°15.235 2°45.606 -999 0.08471 0.473125 -1.418457
2009-03-03 08:21:56 51°15.235 2°45.572 -999 0.08471 0.473125 -1.383633
2009-03-03 08:22:01 51°15.235 2°45.544 -999 0.08471 0.473133 -1.418457
2009-03-03 08:22:05 51°15.235 2°45.522 -999 0.08471 0.473133 -1.383633
2009-03-03 08:22:11 51°15.235 2°45.488 -999 0.08471 0.473133 -1.383633
2009-03-03 08:22:16 51°15.235 2°45.46 -999 0.08471 0.473133 -1.418457
2009-03-03 08:22:21 51°15.235 2°45.432 -999 0.08471 0.473133 -1.418457
2009-03-03 08:22:26 51°15.235 2°45.404 -999 0.08471 0.473133 -1.383633
2009-03-03 08:22:31 51°15.235 2°45.377 -999 0.08471 0.473142 -1.383633
2009-03-03 08:22:36 51°15.234 2°45.348 -999 0.08471 0.473142 -1.418457
2009-03-03 08:22:41 51°15.234 2°45.32 -999 0.08471 0.473142 -1.383633
2009-03-03 08:22:45 51°15.234 2°45.298 -999 0.08471 0.473142 -1.418457
2009-03-03 08:22:51 51°15.234 2°45.264 -999 0.08471 0.473142 -1.418457
2009-03-03 08:22:56 51°15.233 2°45.236 -999 0.08471 0.473142 -1.418457
2009-03-03 08:23:01 51°15.233 2°45.208 -999 0.08471 0.473142 -1.383633
2009-03-03 08:23:06 51°15.233 2°45.18 -999 0.08471 0.473142 -1.383633
2009-03-03 08:23:10 51°15.233 2°45.158 -999 0.08471 0.47315 -1.383633
2009-03-03 08:23:16 51°15.232 2°45.124 -999 0.08471 0.473142 -1.418457
2009-03-03 08:23:21 51°15.231 2°45.096 -999 0.08471 0.473142 -1.418457
2009-03-03 08:23:26 51°15.232 2°45.067 -999 0.08471 0.47315 -1.383633
2009-03-03 08:23:30 51°15.231 2°45.045 -999 0.08471 0.473142 -1.418457
2009-03-03 08:23:36 51°15.232 2°45.011 -999 0.08471 0.47315 -1.383633
2009-03-03 08:23:41 51°15.232 2°44.983 -999 0.08471 0.47315 -1.383633
2009-03-03 08:23:45 51°15.232 2°44.96 -999 0.08471 0.47315 -1.418457
2009-03-03 08:23:50 51°15.232 2°44.932 -999 0.08471 0.47315 -1.418457
2009-03-03 08:23:56 51°15.232 2°44.898 -999 0.08471 0.47315 -1.383633
2009-03-03 08:24:01 51°15.233 2°44.87 -999 0.08471 0.47315 -1.418457
2009-03-03 08:24:06 51°15.233 2°44.841 -999 0.08471 0.47315 -1.383633
2009-03-03 08:24:11 51°15.233 2°44.813 -999 0.08471 0.47315 -1.418457
2009-03-03 08:24:16 51°15.233 2°44.784 -999 0.08471 0.473159 -1.383633
2009-03-03 08:24:21 51°15.232 2°44.756 -999 0.08471 0.473159 -1.383633
2009-03-03 08:24:25 51°15.232 2°44.733 -999 0.08471 0.473159 -1.383633
2009-03-03 08:24:30 51°15.231 2°44.704 -999 0.08471 0.473159 -1.383633
2009-03-03 08:24:36 51°15.231 2°44.67 -999 0.08471 0.473159 -1.383633
2009-03-03 08:24:41 51°15.23 2°44.642 -999 0.08471 0.473159 -1.383633
2009-03-03 08:24:45 51°15.23 2°44.619 -999 0.08471 0.473168 -1.383633
2009-03-03 08:24:51 51°15.23 2°44.584 -999 0.08471 0.473168 -1.383633
2009-03-03 08:24:56 51°15.229 2°44.556 -999 0.08471 0.473176 -1.418457
2009-03-03 08:25:01 51°15.229 2°44.527 -999 0.08471 0.473176 -1.383633
2009-03-03 08:25:06 51°15.229 2°44.499 -999 0.08471 0.473185 -1.383633
2009-03-03 08:25:10 51°15.229 2°44.476 -999 0.08471 0.473185 -1.418457
2009-03-03 08:25:16 51°15.229 2°44.441 -999 0.08471 0.473193 -1.383633
2009-03-03 08:25:21 51°15.229 2°44.413 -999 0.08471 0.473193 -1.383633
2009-03-03 08:25:25 51°15.229 2°44.39 -999 0.08471 0.473211 -1.383633
2009-03-03 08:25:30 51°15.229 2°44.361 -999 0.08471 0.473219 -1.383633
2009-03-03 08:25:36 51°15.229 2°44.326 -999 0.08471 0.473228 -1.418457
2009-03-03 08:25:41 51°15.23 2°44.298 -999 0.08471 0.473236 -1.383633
2009-03-03 08:25:46 51°15.23 2°44.269 -999 0.08471 0.473236 -1.383633
2009-03-03 08:25:51 51°15.23 2°44.241 -999 0.08471 0.473236 -1.383633
2009-03-03 08:25:56 51°15.231 2°44.212 -999 0.08471 0.473245 -1.383633
2009-03-03 08:26:01 51°15.231 2°44.184 -999 0.08471 0.473254 -1.383633
2009-03-03 08:26:06 51°15.231 2°44.155 -999 0.08471 0.473262 -1.383633
2009-03-03 08:26:10 51°15.231 2°44.132 -999 0.08471 0.473271 -1.383633
2009-03-03 08:26:16 51°15.231 2°44.098 -999 0.08471 0.473271 -1.383633
2009-03-03 08:26:21 51°15.231 2°44.07 -999 0.08471 0.473271 -1.383633
2009-03-03 08:26:25 51°15.231 2°44.047 -999 0.08471 0.473279 -1.383633
2009-03-03 08:26:31 51°15.231 2°44.013 -999 0.08471 0.473271 -1.418457
2009-03-03 08:26:36 51°15.231 2°43.985 -999 0.08471 0.473288 -1.383633
2009-03-03 08:26:41 51°15.231 2°43.956 -999 0.08471 0.473288 -1.383633
2009-03-03 08:26:46 51°15.231 2°43.928 -999 0.08471 0.473288 -1.418457
2009-03-03 08:26:51 51°15.23 2°43.9 -999 0.08471 0.473288 -1.418457
2009-03-03 08:26:56 51°15.23 2°43.872 -999 0.08471 0.473288 -1.383633
2009-03-03 08:27:01 51°15.229 2°43.844 -999 0.08471 0.473296 -1.383633
2009-03-03 08:27:05 51°15.228 2°43.822 -999 0.08471 0.473288 -1.418457
2009-03-03 08:27:10 51°15.228 2°43.794 -999 0.08471 0.473296 -1.418457
2009-03-03 08:27:16 51°15.228 2°43.76 -999 0.08471 0.473296 -1.383633
2009-03-03 08:27:21 51°15.227 2°43.733 -999 0.08471 0.473296 -1.383633
2009-03-03 08:27:26 51°15.227 2°43.705 -999 0.08471 0.473296 -1.383633
2009-03-03 08:27:30 51°15.226 2°43.682 -999 0.08471 0.473296 -1.383633
2009-03-03 08:27:36 51°15.226 2°43.649 -999 0.08471 0.473296 -1.383633
2009-03-03 08:27:41 51°15.226 2°43.621 -999 0.08471 0.473305 -1.383633
2009-03-03 08:27:46 51°15.225 2°43.593 -999 0.08471 0.473296 -1.383633
2009-03-03 08:27:50 51°15.225 2°43.57 -999 0.08471 0.473296 -1.383633
2009-03-03 08:27:56 51°15.225 2°43.537 -999 0.08471 0.473305 -1.383633
2009-03-03 08:28:01 51°15.225 2°43.509 -999 0.08471 0.473305 -1.383633
2009-03-03 08:28:05 51°15.224 2°43.487 -999 0.08471 0.473305 -1.383633
2009-03-03 08:28:10 51°15.224 2°43.459 -999 0.08471 0.473305 -1.383633
2009-03-03 08:28:16 51°15.224 2°43.425 -999 0.08471 0.473305 -1.383633
2009-03-03 08:28:21 51°15.223 2°43.397 -999 0.08471 0.473305 -1.383633
2009-03-03 08:28:26 51°15.223 2°43.369 -999 0.08471 0.473305 -1.383633
2009-03-03 08:28:31 51°15.223 2°43.341 -999 0.08471 0.473305 -1.418457
2009-03-03 08:28:36 51°15.223 2°43.313 -999 0.08471 0.473314 -1.383633
2009-03-03 08:28:41 51°15.222 2°43.285 -999 0.08471 0.473314 -1.383633
2009-03-03 08:28:45 51°15.222 2°43.262 -999 0.08471 0.473314 -1.383633
2009-03-03 08:28:50 51°15.222 2°43.234 -999 0.08471 0.473314 -1.383633
2009-03-03 08:28:56 51°15.223 2°43.2 -999 0.08471 0.473322 -1.383633
2009-03-03 08:29:01 51°15.223 2°43.172 -999 0.08471 0.473314 -1.383633
2009-03-03 08:29:05 51°15.223 2°43.15 -999 0.08471 0.473331 -1.383633
2009-03-03 08:29:11 51°15.224 2°43.116 -999 0.08471 0.473322 -1.383633
2009-03-03 08:29:16 51°15.225 2°43.088 -999 0.08471 0.473331 -1.383633
2009-03-03 08:29:21 51°15.225 2°43.06 -999 0.08471 0.473331 -1.383633
2009-03-03 08:29:26 51°15.226 2°43.032 -999 0.08471 0.473339 -1.383633
2009-03-03 08:29:30 51°15.226 2°43.009 -999 0.08471 0.473331 -1.383633
2009-03-03 08:29:36 51°15.227 2°42.975 -999 0.08471 0.473339 -1.383633
2009-03-03 08:29:41 51°15.227 2°42.947 -999 0.08471 0.473339 -1.383633
2009-03-03 08:29:46 51°15.228 2°42.919 -999 0.08471 0.473339 -1.383633
2009-03-03 08:29:50 51°15.227 2°42.897 -999 0.08471 0.473339 -1.383633
2009-03-03 08:29:56 51°15.228 2°42.863 -999 0.08471 0.473348 -1.383633
2009-03-03 08:30:01 51°15.227 2°42.835 -999 0.08471 0.473339 -1.383633
2009-03-03 08:30:05 51°15.227 2°42.812 -999 0.08471 0.473348 -1.383633
2009-03-03 08:30:10 51°15.227 2°42.784 -999 0.08471 0.473348 -1.383633
2009-03-03 08:30:16 51°15.226 2°42.75 -999 0.08471 0.473357 -1.383633
2009-03-03 08:30:21 51°15.225 2°42.722 -999 0.08471 0.473357 -1.383633
2009-03-03 08:30:26 51°15.225 2°42.694 -999 0.08471 0.473357 -1.383633
2009-03-03 08:30:30 51°15.225 2°42.671 -999 0.08471 0.473365 -1.383633
2009-03-03 08:30:36 51°15.224 2°42.637 -999 0.08471 0.473365 -1.383633
2009-03-03 08:30:41 51°15.223 2°42.609 -999 0.08471 0.473374 -1.383633
2009-03-03 08:30:46 51°15.223 2°42.581 -999 0.08471 0.473374 -1.383633
2009-03-03 08:30:51 51°15.222 2°42.553 -999 0.08471 0.473374 -1.383633
2009-03-03 08:30:56 51°15.222 2°42.525 -999 0.08471 0.473382 -1.383633
2009-03-03 08:31:01 51°15.222 2°42.497 -999 0.08471 0.473382 -1.383633
2009-03-03 08:31:05 51°15.221 2°42.474 -999 0.08471 0.473391 -1.383633
2009-03-03 08:31:10 51°15.22 2°42.446 -999 0.08471 0.4734 -1.383633
2009-03-03 08:31:16 51°15.22 2°42.413 -999 0.08471 0.4734 -1.383633
2009-03-03 08:31:21 51°15.219 2°42.385 -999 0.08471 0.4734 -1.383633
2009-03-03 08:31:26 51°15.218 2°42.357 -999 0.08471 0.4734 -1.418457
2009-03-03 08:31:31 51°15.218 2°42.329 -999 0.08471 0.473417 -1.383633
2009-03-03 08:31:36 51°15.217 2°42.3 -999 0.08471 0.473408 -1.383633
2009-03-03 08:31:41 51°15.216 2°42.273 -999 0.08471 0.473425 -1.383633
2009-03-03 08:31:46 51°15.215 2°42.245 -999 0.08471 0.473425 -1.418457
2009-03-03 08:31:50 51°15.214 2°42.223 -999 0.08471 0.473425 -1.418457
2009-03-03 08:31:56 51°15.213 2°42.189 -999 0.08471 0.473425 -1.383633
2009-03-03 08:32:01 51°15.212 2°42.161 -999 0.08471 0.473425 -1.383633
2009-03-03 08:32:05 51°15.212 2°42.138 -999 0.08471 0.473434 -1.383633
2009-03-03 08:32:10 51°15.211 2°42.111 -999 0.08471 0.473434 -1.383633
2009-03-03 08:32:16 51°15.21 2°42.077 -999 0.08471 0.473443 -1.383633
2009-03-03 08:32:21 51°15.209 2°42.049 -999 0.08471 0.473443 -1.383633
2009-03-03 08:32:26 51°15.208 2°42.021 -999 0.08471 0.473443 -1.418457
2009-03-03 08:32:30 51°15.207 2°41.998 -999 0.08471 0.473443 -1.383633
2009-03-03 08:32:36 51°15.207 2°41.965 -999 0.08471 0.473443 -1.383633
2009-03-03 08:32:41 51°15.207 2°41.937 -999 0.08471 0.473443 -1.383633
2009-03-03 08:32:46 51°15.206 2°41.909 -999 0.08471 0.473451 -1.383633
2009-03-03 08:32:51 51°15.206 2°41.88 -999 0.08471 0.473451 -1.383633
2009-03-03 08:32:56 51°15.205 2°41.853 -999 0.08471 0.473451 -1.418457
2009-03-03 08:33:01 51°15.205 2°41.824 -999 0.08471 0.473451 -1.418457
2009-03-03 08:33:05 51°15.205 2°41.802 -999 0.08471 0.473451 -1.383633
2009-03-03 08:33:10 51°15.204 2°41.774 -999 0.08471 0.473451 -1.383633
2009-03-03 08:33:16 51°15.204 2°41.74 -999 0.08471 0.473451 -1.383633
2009-03-03 08:33:21 51°15.204 2°41.712 -999 0.08471 0.473451 -1.383633
2009-03-03 08:33:26 51°15.204 2°41.684 -999 0.08471 0.473443 -1.383633
2009-03-03 08:33:31 51°15.203 2°41.655 -999 0.08471 0.473443 -1.383633
2009-03-03 08:33:36 51°15.202 2°41.628 -999 0.08471 0.473434 -1.383633
2009-03-03 08:33:41 51°15.201 2°41.6 -999 0.08471 0.473434 -1.383633
2009-03-03 08:33:46 51°15.2 2°41.571 -999 0.08471 0.473434 -1.383633
2009-03-03 08:33:50 51°15.2 2°41.549 -999 0.08471 0.473434 -1.383633
2009-03-03 08:33:56 51°15.199 2°41.516 -999 0.084607 0.472829 -1.383633
2009-03-03 08:34:01 51°15.199 2°41.487 -999 0.084607 0.472829 -1.383633
2009-03-03 08:34:06 51°15.199 2°41.46 -999 0.08471 0.473417 -1.383633
2009-03-03 08:34:10 51°15.198 2°41.437 -999 0.084607 0.47282 -1.383633
2009-03-03 08:34:16 51°15.198 2°41.404 -999 0.084607 0.472829 -1.383633
2009-03-03 08:34:21 51°15.197 2°41.376 -999 0.084607 0.472829 -1.383633
2009-03-03 08:34:25 51°15.196 2°41.354 -999 0.08471 0.473425 -1.383633
2009-03-03 08:34:30 51°15.196 2°41.326 -999 0.08471 0.473425 -1.383633
2009-03-03 08:34:36 51°15.195 2°41.292 -999 0.084607 0.472829 -1.383633
2009-03-03 08:34:41 51°15.195 2°41.265 -999 0.08471 0.473434 -1.383633
2009-03-03 08:34:46 51°15.195 2°41.237 -999 0.084607 0.472846 -1.383633
2009-03-03 08:34:51 51°15.194 2°41.209 -999 0.084607 0.472846 -1.383633
2009-03-03 08:34:56 51°15.194 2°41.181 -999 0.084607 0.472846 -1.383633
2009-03-03 08:35:01 51°15.194 2°41.153 -999 0.084607 0.472854 -1.383633
2009-03-03 08:35:05 51°15.193 2°41.13 -999 0.084607 0.472854 -1.383633
2009-03-03 08:35:10 51°15.193 2°41.102 -999 0.084607 0.472872 -1.383633
2009-03-03 08:35:16 51°15.192 2°41.068 -999 0.084607 0.472872 -1.383633
2009-03-03 08:35:21 51°15.192 2°41.04 -999 0.084607 0.472872 -1.383633
2009-03-03 08:35:26 51°15.192 2°41.012 -999 0.084607 0.47288 -1.383633
2009-03-03 08:35:31 51°15.191 2°40.984 -999 0.084607 0.472889 -1.383633
2009-03-03 08:35:36 51°15.191 2°40.956 -999 0.084607 0.472897 -1.383633
2009-03-03 08:35:41 51°15.19 2°40.928 -999 0.084607 0.472906 -1.383633
2009-03-03 08:35:46 51°15.19 2°40.9 -999 0.084607 0.472915 -1.383633
2009-03-03 08:35:51 51°15.189 2°40.872 -999 0.084607 0.472915 -1.383633
2009-03-03 08:35:56 51°15.188 2°40.844 -999 0.084607 0.472906 -1.383633
2009-03-03 08:36:01 51°15.188 2°40.815 -999 0.084607 0.472923 -1.383633
2009-03-03 08:36:05 51°15.187 2°40.793 -999 0.084607 0.472915 -1.383633
2009-03-03 08:36:10 51°15.187 2°40.765 -999 0.084607 0.472923 -1.383633
2009-03-03 08:36:16 51°15.187 2°40.731 -999 0.084607 0.472932 -1.383633
2009-03-03 08:36:21 51°15.186 2°40.703 -999 0.084607 0.472932 -1.383633
2009-03-03 08:36:25 51°15.186 2°40.681 -999 0.084607 0.472932 -1.383633
2009-03-03 08:36:31 51°15.186 2°40.647 -999 0.084607 0.472932 -1.383633
2009-03-03 08:36:36 51°15.186 2°40.62 -999 0.084607 0.47294 -1.383633
2009-03-03 08:36:41 51°15.185 2°40.592 -999 0.084607 0.47294 -1.383633
2009-03-03 08:36:46 51°15.185 2°40.564 -999 0.084607 0.47294 -1.383633
2009-03-03 08:36:50 51°15.184 2°40.541 -999 0.084607 0.47294 -1.383633
2009-03-03 08:36:56 51°15.184 2°40.508 -999 0.084607 0.47294 -1.383633
2009-03-03 08:37:01 51°15.183 2°40.48 -999 0.084607 0.47294 -1.383633
2009-03-03 08:37:06 51°15.183 2°40.452 -999 0.084607 0.472949 -1.418457
2009-03-03 08:37:10 51°15.183 2°40.43 -999 0.084607 0.472949 -1.383633
2009-03-03 08:37:16 51°15.182 2°40.396 -999 0.084607 0.47294 -1.383633
2009-03-03 08:37:21 51°15.182 2°40.368 -999 0.084607 0.47294 -1.383633
2009-03-03 08:37:25 51°15.181 2°40.346 -999 0.084607 0.47294 -1.383633
2009-03-03 08:37:30 51°15.18 2°40.318 -999 0.084607 0.472932 -1.383633
2009-03-03 08:37:36 51°15.179 2°40.285 -999 0.084607 0.472932 -1.383633
2009-03-03 08:37:41 51°15.178 2°40.257 -999 0.084607 0.472932 -1.383633
2009-03-03 08:37:46 51°15.177 2°40.229 -999 0.084607 0.472923 -1.383633
2009-03-03 08:37:51 51°15.177 2°40.201 -999 0.084607 0.472923 -1.383633
2009-03-03 08:37:56 51°15.176 2°40.173 -999 0.084607 0.472923 -1.383633
2009-03-03 08:38:01 51°15.175 2°40.146 -999 0.084607 0.472923 -1.383633
2009-03-03 08:38:06 51°15.174 2°40.118 -999 0.084607 0.472923 -1.383633
2009-03-03 08:38:11 51°15.174 2°40.09 -999 0.084607 0.472923 -1.383633
2009-03-03 08:38:16 51°15.173 2°40.062 -999 0.084607 0.472923 -1.383633
2009-03-03 08:38:21 51°15.172 2°40.034 -999 0.084607 0.472923 -1.383633
2009-03-03 08:38:25 51°15.171 2°40.012 -999 0.084607 0.472923 -1.383633
2009-03-03 08:38:30 51°15.171 2°39.984 -999 0.084607 0.472932 -1.383633
2009-03-03 08:38:36 51°15.17 2°39.951 -999 0.084607 0.47294 -1.383633
2009-03-03 08:38:41 51°15.169 2°39.923 -999 0.084607 0.472949 -1.418457
2009-03-03 08:38:46 51°15.168 2°39.895 -999 0.084607 0.472958 -1.383633
2009-03-03 08:38:51 51°15.167 2°39.867 -999 0.084607 0.472958 -1.383633
2009-03-03 08:38:56 51°15.166 2°39.839 -999 0.084607 0.472966 -1.383633
2009-03-03 08:39:01 51°15.165 2°39.811 -999 0.084607 0.472966 -1.383633
2009-03-03 08:39:06 51°15.164 2°39.783 -999 0.084607 0.472983 -1.383633
2009-03-03 08:39:10 51°15.163 2°39.761 -999 0.084607 0.472992 -1.383633
2009-03-03 08:39:16 51°15.162 2°39.727 -999 0.084607 0.473001 -1.383633
2009-03-03 08:39:21 51°15.162 2°39.699 -999 0.084607 0.473001 -1.383633
2009-03-03 08:39:26 51°15.161 2°39.671 -999 0.084607 0.473009 -1.383633
2009-03-03 08:39:30 51°15.16 2°39.648 -999 0.084607 0.473018 -1.383633
2009-03-03 08:39:36 51°15.159 2°39.615 -999 0.084607 0.473009 -1.383633
2009-03-03 08:39:41 51°15.158 2°39.587 -999 0.084607 0.473026 -1.383633
2009-03-03 08:39:45 51°15.157 2°39.564 -999 0.084607 0.473026 -1.383633
2009-03-03 08:39:51 51°15.156 2°39.531 -999 0.084607 0.473026 -1.383633
2009-03-03 08:39:56 51°15.156 2°39.502 -999 0.084607 0.473035 -1.383633
2009-03-03 08:40:01 51°15.155 2°39.474 -999 0.084607 0.473035 -1.383633
2009-03-03 08:40:06 51°15.154 2°39.446 -999 0.084607 0.473052 -1.383633
2009-03-03 08:40:11 51°15.154 2°39.418 -999 0.084607 0.473052 -1.383633
2009-03-03 08:40:16 51°15.153 2°39.39 -999 0.084607 0.473061 -1.383633
2009-03-03 08:40:21 51°15.152 2°39.362 -999 0.084607 0.473061 -1.383633
2009-03-03 08:40:25 51°15.151 2°39.339 -999 0.084607 0.473061 -1.383633
2009-03-03 08:40:30 51°15.15 2°39.311 -999 0.084607 0.473069 -1.383633
2009-03-03 08:40:36 51°15.149 2°39.277 -999 0.084607 0.473078 -1.383633
2009-03-03 08:40:41 51°15.148 2°39.249 -999 0.084607 0.473078 -1.383633
2009-03-03 08:40:45 51°15.148 2°39.226 -999 0.084607 0.473095 -1.383633
2009-03-03 08:40:51 51°15.147 2°39.192 -999 0.084607 0.473095 -1.383633
2009-03-03 08:40:56 51°15.146 2°39.164 -999 0.084607 0.473095 -1.383633
2009-03-03 08:41:01 51°15.145 2°39.136 -999 0.084607 0.473104 -1.383633
2009-03-03 08:41:06 51°15.144 2°39.108 -999 0.084607 0.473104 -1.383633
2009-03-03 08:41:11 51°15.143 2°39.08 -999 0.084607 0.473112 -1.383633
2009-03-03 08:41:16 51°15.143 2°39.051 -999 0.084607 0.473112 -1.383633
2009-03-03 08:41:21 51°15.142 2°39.023 -999 0.084607 0.473112 -1.383633
2009-03-03 08:41:25 51°15.143 2°39.001 -999 0.084607 0.473121 -1.383633
2009-03-03 08:41:30 51°15.143 2°38.973 -999 0.084607 0.473112 -1.418457
2009-03-03 08:41:36 51°15.147 2°38.939 -999 0.084607 0.473104 -1.383633
2009-03-03 08:41:41 51°15.151 2°38.912 -999 0.084607 0.473138 -1.383633
2009-03-03 08:41:46 51°15.157 2°38.886 -999 0.084607 0.473147 -1.383633
2009-03-03 08:41:51 51°15.162 2°38.859 -999 0.084607 0.473147 -1.383633
2009-03-03 08:41:56 51°15.168 2°38.833 -999 0.084607 0.473155 -1.383633
2009-03-03 08:42:01 51°15.175 2°38.807 -999 0.084607 0.473164 -1.383633
2009-03-03 08:42:06 51°15.182 2°38.781 -999 0.084607 0.473164 -1.383633
2009-03-03 08:42:11 51°15.189 2°38.754 -999 0.084607 0.473172 -1.383633
2009-03-03 08:42:16 51°15.196 2°38.728 -999 0.084607 0.473172 -1.383633
2009-03-03 08:42:21 51°15.202 2°38.702 -999 0.084607 0.473172 -1.383633
2009-03-03 08:42:26 51°15.21 2°38.676 -999 0.084607 0.473172 -1.383633
2009-03-03 08:42:30 51°15.215 2°38.655 -999 0.084607 0.47319 -1.383633
2009-03-03 08:42:36 51°15.222 2°38.622 -999 0.084607 0.47319 -1.383633
2009-03-03 08:42:41 51°15.229 2°38.596 -999 0.084607 0.473198 -1.383633
2009-03-03 08:42:45 51°15.234 2°38.574 -999 0.084607 0.473198 -1.383633
2009-03-03 08:42:51 51°15.241 2°38.542 -999 0.084607 0.473198 -1.383633
2009-03-03 08:42:56 51°15.247 2°38.515 -999 0.084607 0.473198 -1.383633
2009-03-03 08:43:01 51°15.253 2°38.488 -999 0.084607 0.473198 -1.383633
2009-03-03 08:43:06 51°15.259 2°38.461 -999 0.084607 0.473233 -1.383633
2009-03-03 08:43:11 51°15.264 2°38.434 -999 0.084607 0.473207 -1.383633
2009-03-03 08:43:16 51°15.269 2°38.407 -999 0.084607 0.473172 -1.383633
2009-03-03 08:43:21 51°15.277 2°38.382 -999 0.084607 0.473172 -1.383633
2009-03-03 08:43:26 51°15.285 2°38.358 -999 0.084607 0.47319 -1.383633
2009-03-03 08:43:31 51°15.294 2°38.333 -999 0.084607 0.473198 -1.383633
2009-03-03 08:43:36 51°15.302 2°38.308 -999 0.084607 0.473198 -1.383633
2009-03-03 08:43:41 51°15.311 2°38.284 -999 0.084607 0.47319 -1.383633
2009-03-03 08:43:45 51°15.319 2°38.265 -999 0.084607 0.47319 -1.383633
2009-03-03 08:43:50 51°15.329 2°38.241 -999 0.084607 0.47319 -1.383633
2009-03-03 08:43:56 51°15.339 2°38.212 -999 0.084607 0.473198 -1.383633
2009-03-03 08:44:01 51°15.349 2°38.188 -999 0.084607 0.473181 -1.383633
2009-03-03 08:44:06 51°15.359 2°38.164 -999 0.084607 0.473207 -1.383633
2009-03-03 08:44:11 51°15.368 2°38.14 -999 0.084607 0.473198 -1.383633
2009-03-03 08:44:16 51°15.377 2°38.116 -999 0.084607 0.47319 -1.383633
2009-03-03 08:44:21 51°15.386 2°38.092 -999 0.084607 0.47319 -1.383633
2009-03-03 08:44:26 51°15.396 2°38.067 -999 0.084607 0.473198 -1.383633
2009-03-03 08:44:30 51°15.403 2°38.048 -999 0.084607 0.473198 -1.383633
2009-03-03 08:44:36 51°15.414 2°38.018 -999 0.084607 0.473198 -1.383633
2009-03-03 08:44:41 51°15.422 2°37.993 -999 0.084607 0.47319 -1.383633
2009-03-03 08:44:46 51°15.431 2°37.968 -999 0.084607 0.473198 -1.383633
2009-03-03 08:44:50 51°15.438 2°37.948 -999 0.084607 0.473198 -1.383633
2009-03-03 08:44:56 51°15.448 2°37.918 -999 0.084607 0.473207 -1.383633
2009-03-03 08:45:01 51°15.456 2°37.892 -999 0.084607 0.473215 -1.383633
2009-03-03 08:45:05 51°15.463 2°37.872 -999 0.084607 0.473215 -1.383633
2009-03-03 08:45:11 51°15.472 2°37.841 -999 0.084607 0.473215 -1.383633
2009-03-03 08:45:16 51°15.48 2°37.816 -999 0.084607 0.473215 -1.383633
2009-03-03 08:45:21 51°15.488 2°37.79 -999 0.084607 0.473215 -1.383633
2009-03-03 08:45:26 51°15.497 2°37.765 -999 0.084607 0.473224 -1.383633
2009-03-03 08:45:30 51°15.503 2°37.744 -999 0.084607 0.473224 -1.383633
2009-03-03 08:45:36 51°15.513 2°37.714 -999 0.084607 0.473233 -1.383633
2009-03-03 08:45:41 51°15.522 2°37.688 -999 0.084607 0.47325 -1.383633
2009-03-03 08:45:46 51°15.53 2°37.663 -999 0.084607 0.47325 -1.383633
2009-03-03 08:45:50 51°15.537 2°37.642 -999 0.084607 0.47325 -1.383633
2009-03-03 08:45:56 51°15.547 2°37.612 -999 0.084607 0.473259 -1.383633
2009-03-03 08:46:01 51°15.555 2°37.586 -999 0.084607 0.473267 -1.383633
2009-03-03 08:46:05 51°15.562 2°37.566 -999 0.084607 0.473267 -1.383633
2009-03-03 08:46:10 51°15.571 2°37.54 -999 0.084607 0.473276 -1.383633
2009-03-03 08:46:16 51°15.582 2°37.51 -999 0.084607 0.473284 -1.383633
2009-03-03 08:46:21 51°15.59 2°37.484 -999 0.084607 0.473284 -1.383633
2009-03-03 08:46:26 51°15.598 2°37.459 -999 0.084607 0.473284 -1.383633
2009-03-03 08:46:30 51°15.605 2°37.439 -999 0.084607 0.473293 -1.383633
2009-03-03 08:46:36 51°15.615 2°37.408 -999 0.084607 0.473293 -1.383633
2009-03-03 08:46:41 51°15.624 2°37.382 -999 0.084607 0.473293 -1.383633
2009-03-03 08:46:46 51°15.632 2°37.357 -999 0.084607 0.473302 -1.383633
2009-03-03 08:46:51 51°15.641 2°37.332 -999 0.084607 0.473302 -1.383633
2009-03-03 08:46:56 51°15.649 2°37.306 -999 0.084607 0.473319 -1.383633
2009-03-03 08:47:01 51°15.657 2°37.28 -999 0.084607 0.473302 -1.383633
2009-03-03 08:47:05 51°15.664 2°37.259 -999 0.084607 0.473336 -1.383633
2009-03-03 08:47:10 51°15.671 2°37.233 -999 0.084607 0.473319 -1.383633
2009-03-03 08:47:16 51°15.68 2°37.201 -999 0.084607 0.473345 -1.383633
2009-03-03 08:47:21 51°15.686 2°37.174 -999 0.084607 0.473345 -1.383633
2009-03-03 08:47:26 51°15.693 2°37.148 -999 0.084607 0.473327 -1.383633
2009-03-03 08:47:31 51°15.699 2°37.121 -999 0.084607 0.473336 -1.383633
2009-03-03 08:47:36 51°15.705 2°37.094 -999 0.084607 0.473327 -1.383633
2009-03-03 08:47:41 51°15.71 2°37.067 -999 0.084607 0.473336 -1.383633
2009-03-03 08:47:46 51°15.716 2°37.039 -999 0.084607 0.473345 -1.383633
2009-03-03 08:47:50 51°15.721 2°37.018 -999 0.084607 0.473345 -1.383633
2009-03-03 08:47:56 51°15.727 2°36.985 -999 0.084607 0.473345 -1.383633
2009-03-03 08:48:01 51°15.732 2°36.958 -999 0.084607 0.473345 -1.383633
2009-03-03 08:48:05 51°15.737 2°36.936 -999 0.084607 0.473353 -1.383633
2009-03-03 08:48:10 51°15.742 2°36.909 -999 0.084607 0.473362 -1.383633
2009-03-03 08:48:16 51°15.748 2°36.875 -999 0.084607 0.473353 -1.383633
2009-03-03 08:48:21 51°15.753 2°36.848 -999 0.084607 0.473353 -1.383633
2009-03-03 08:48:26 51°15.757 2°36.82 -999 0.084607 0.473379 -1.348809
2009-03-03 08:48:30 51°15.76 2°36.797 -999 0.084607 0.473353 -1.383633
2009-03-03 08:48:36 51°15.766 2°36.764 -999 0.084607 0.473388 -1.383633
2009-03-03 08:48:41 51°15.77 2°36.736 -999 0.084607 0.473362 -1.383633
2009-03-03 08:48:46 51°15.775 2°36.708 -999 0.084607 0.473388 -1.383633
2009-03-03 08:48:51 51°15.779 2°36.68 -999 0.084607 0.473388 -1.383633
2009-03-03 08:48:56 51°15.784 2°36.653 -999 0.084607 0.473396 -1.383633
2009-03-03 08:49:01 51°15.788 2°36.625 -999 0.084607 0.473413 -1.383633
2009-03-03 08:49:05 51°15.791 2°36.602 -999 0.084607 0.473422 -1.383633
2009-03-03 08:49:10 51°15.795 2°36.574 -999 0.084607 0.473431 -1.383633
2009-03-03 08:49:16 51°15.8 2°36.54 -999 0.084607 0.473439 -1.383633
2009-03-03 08:49:21 51°15.804 2°36.512 -999 0.084607 0.473439 -1.383633
2009-03-03 08:49:26 51°15.808 2°36.484 -999 0.084607 0.473448 -1.383633
2009-03-03 08:49:31 51°15.811 2°36.456 -999 0.084607 0.473457 -1.383633
2009-03-03 08:49:36 51°15.814 2°36.428 -999 0.084607 0.473465 -1.383633
2009-03-03 08:49:41 51°15.817 2°36.399 -999 0.084607 0.473474 -1.383633
2009-03-03 08:49:46 51°15.821 2°36.371 -999 0.084607 0.473431 -1.383633
2009-03-03 08:49:50 51°15.825 2°36.349 -999 0.084607 0.473431 -1.383633
2009-03-03 08:49:56 51°15.833 2°36.318 -999 0.084607 0.473431 -1.383633
2009-03-03 08:50:01 51°15.841 2°36.294 -999 0.084607 0.473422 -1.418457
2009-03-03 08:50:06 51°15.851 2°36.271 -999 0.084607 0.473474 -1.383633
2009-03-03 08:50:10 51°15.859 2°36.252 -999 0.084607 0.473474 -1.383633
2009-03-03 08:50:16 51°15.871 2°36.225 -999 0.084607 0.473457 -1.383633
2009-03-03 08:50:21 51°15.883 2°36.205 -999 0.084607 0.473457 -1.383633
2009-03-03 08:50:25 51°15.893 2°36.189 -999 0.084607 0.473482 -1.383633
2009-03-03 08:50:30 51°15.906 2°36.17 -999 0.084607 0.473482 -1.383633
2009-03-03 08:50:36 51°15.922 2°36.149 -999 0.084607 0.473474 -1.383633
2009-03-03 08:50:41 51°15.936 2°36.132 -999 0.084607 0.473482 -1.383633
2009-03-03 08:50:46 51°15.951 2°36.116 -999 0.084607 0.473474 -1.383633
2009-03-03 08:50:51 51°15.966 2°36.102 -999 0.084607 0.473474 -1.383633
2009-03-03 08:50:56 51°15.981 2°36.087 -999 0.084607 0.473474 -1.383633
2009-03-03 08:51:01 51°15.996 2°36.073 -999 0.084607 0.473474 -1.383633
2009-03-03 08:51:05 51°16.008 2°36.062 -999 0.084607 0.473482 -1.383633
2009-03-03 08:51:10 51°16.024 2°36.05 -999 0.084607 0.473491 -1.383633
2009-03-03 08:51:16 51°16.043 2°36.034 -999 0.084607 0.473491 -1.383633
2009-03-03 08:51:21 51°16.059 2°36.022 -999 0.084607 0.473491 -1.383633
2009-03-03 08:51:26 51°16.074 2°36.009 -999 0.084607 0.473508 -1.383633
2009-03-03 08:51:31 51°16.09 2°35.997 -999 0.084607 0.473508 -1.383633
2009-03-03 08:51:36 51°16.106 2°35.985 -999 0.084607 0.473508 -1.418457
2009-03-03 08:51:41 51°16.122 2°35.973 -999 0.084607 0.473508 -1.383633
2009-03-03 08:51:46 51°16.138 2°35.963 -999 0.084607 0.473517 -1.383633
2009-03-03 08:51:51 51°16.154 2°35.951 -999 0.084607 0.473517 -1.383633
2009-03-03 08:51:56 51°16.171 2°35.942 -999 0.084607 0.473517 -1.383633
2009-03-03 08:52:01 51°16.187 2°35.931 -999 0.084504 0.472919 -1.383633
2009-03-03 08:52:05 51°16.2 2°35.924 -999 0.084607 0.473517 -1.383633
2009-03-03 08:52:10 51°16.217 2°35.914 -999 0.084504 0.472911 -1.383633
2009-03-03 08:52:16 51°16.237 2°35.903 -999 0.084607 0.473508 -1.383633
2009-03-03 08:52:21 51°16.254 2°35.896 -999 0.084607 0.473508 -1.383633
2009-03-03 08:52:25 51°16.267 2°35.889 -999 0.084504 0.472911 -1.383633
2009-03-03 08:52:31 51°16.287 2°35.881 -999 0.084504 0.472919 -1.383633
2009-03-03 08:52:36 51°16.304 2°35.874 -999 0.084504 0.472911 -1.383633
2009-03-03 08:52:41 51°16.321 2°35.868 -999 0.084504 0.472928 -1.383633
2009-03-03 08:52:46 51°16.338 2°35.862 -999 0.084504 0.472928 -1.383633
2009-03-03 08:52:50 51°16.351 2°35.856 -999 0.084504 0.472928 -1.383633
2009-03-03 08:52:56 51°16.371 2°35.848 -999 0.084504 0.472919 -1.383633
2009-03-03 08:53:01 51°16.388 2°35.842 -999 0.084504 0.472928 -1.383633
2009-03-03 08:53:06 51°16.405 2°35.836 -999 0.084504 0.472928 -1.383633
2009-03-03 08:53:10 51°16.418 2°35.831 -999 0.084504 0.472928 -1.383633
2009-03-03 08:53:16 51°16.438 2°35.824 -999 0.084504 0.472928 -1.383633
2009-03-03 08:53:21 51°16.455 2°35.818 -999 0.084504 0.472928 -1.383633
2009-03-03 08:53:25 51°16.468 2°35.813 -999 0.084504 0.472936 -1.383633
2009-03-03 08:53:31 51°16.488 2°35.805 -999 0.084504 0.472928 -1.383633
2009-03-03 08:53:36 51°16.505 2°35.8 -999 0.084504 0.472928 -1.383633
2009-03-03 08:53:41 51°16.521 2°35.794 -999 0.084504 0.472928 -1.383633
2009-03-03 08:53:46 51°16.538 2°35.788 -999 0.084504 0.472928 -1.383633
2009-03-03 08:53:51 51°16.554 2°35.782 -999 0.084504 0.472928 -1.383633
2009-03-03 08:53:56 51°16.571 2°35.776 -999 0.084504 0.472936 -1.383633
2009-03-03 08:54:01 51°16.588 2°35.769 -999 0.084504 0.472936 -1.383633
2009-03-03 08:54:06 51°16.604 2°35.763 -999 0.084504 0.472936 -1.383633
2009-03-03 08:54:11 51°16.621 2°35.757 -999 0.084504 0.472936 -1.383633
2009-03-03 08:54:16 51°16.637 2°35.75 -999 0.084504 0.472936 -1.383633
2009-03-03 08:54:21 51°16.654 2°35.745 -999 0.084504 0.472936 -1.383633
2009-03-03 08:54:25 51°16.667 2°35.739 -999 0.084504 0.472936 -1.383633
2009-03-03 08:54:31 51°16.687 2°35.732 -999 0.084504 0.472954 -1.383633
2009-03-03 08:54:36 51°16.703 2°35.724 -999 0.084504 0.472954 -1.383633
2009-03-03 08:54:41 51°16.72 2°35.716 -999 0.084504 0.472962 -1.383633
2009-03-03 08:54:46 51°16.736 2°35.708 -999 0.084504 0.472945 -1.383633
2009-03-03 08:54:51 51°16.752 2°35.699 -999 0.084504 0.472945 -1.383633
2009-03-03 08:54:56 51°16.768 2°35.692 -999 0.084504 0.472971 -1.383633
2009-03-03 08:55:01 51°16.784 2°35.682 -999 0.084504 0.472954 -1.383633
2009-03-03 08:55:06 51°16.8 2°35.675 -999 0.084504 0.472962 -1.383633
2009-03-03 08:55:10 51°16.813 2°35.667 -999 0.084504 0.472962 -1.383633
2009-03-03 08:55:16 51°16.833 2°35.657 -999 0.084504 0.472971 -1.383633
2009-03-03 08:55:21 51°16.849 2°35.648 -999 0.084504 0.472971 -1.383633
2009-03-03 08:55:25 51°16.862 2°35.641 -999 0.084504 0.472971 -1.383633
2009-03-03 08:55:30 51°16.878 2°35.632 -999 0.084504 0.472988 -1.383633
2009-03-03 08:55:36 51°16.897 2°35.621 -999 0.084504 0.472971 -1.383633
2009-03-03 08:55:41 51°16.914 2°35.612 -999 0.084504 0.472979 -1.383633
2009-03-03 08:55:46 51°16.93 2°35.603 -999 0.084504 0.473005 -1.383633
2009-03-03 08:55:51 51°16.946 2°35.593 -999 0.084504 0.473005 -1.383633
2009-03-03 08:55:56 51°16.962 2°35.584 -999 0.084504 0.472997 -1.383633
2009-03-03 08:56:01 51°16.978 2°35.574 -999 0.084504 0.472997 -1.383633
2009-03-03 08:56:06 51°16.994 2°35.565 -999 0.084504 0.472997 -1.383633
2009-03-03 08:56:11 51°17.01 2°35.555 -999 0.084504 0.473005 -1.383633
2009-03-03 08:56:16 51°17.026 2°35.544 -999 0.084504 0.473005 -1.383633
2009-03-03 08:56:21 51°17.042 2°35.534 -999 0.084504 0.473005 -1.383633
2009-03-03 08:56:25 51°17.054 2°35.525 -999 0.084504 0.473005 -1.383633
2009-03-03 08:56:31 51°17.073 2°35.512 -999 0.084504 0.473014 -1.348809
2009-03-03 08:56:36 51°17.089 2°35.5 -999 0.084504 0.473005 -1.383633
2009-03-03 08:56:41 51°17.105 2°35.49 -999 0.084504 0.473023 -1.383633
2009-03-03 08:56:46 51°17.121 2°35.478 -999 0.084504 0.473014 -1.383633
2009-03-03 08:56:51 51°17.137 2°35.466 -999 0.084504 0.473014 -1.383633
2009-03-03 08:56:56 51°17.152 2°35.454 -999 0.084504 0.473023 -1.383633
2009-03-03 08:57:01 51°17.168 2°35.443 -999 0.084504 0.473023 -1.383633
2009-03-03 08:57:06 51°17.184 2°35.431 -999 0.084504 0.473031 -1.383633
2009-03-03 08:57:10 51°17.197 2°35.422 -999 0.084504 0.473031 -1.383633
2009-03-03 08:57:16 51°17.216 2°35.407 -999 0.084504 0.473023 -1.383633
2009-03-03 08:57:21 51°17.232 2°35.396 -999 0.084504 0.473023 -1.383633
2009-03-03 08:57:26 51°17.247 2°35.384 -999 0.084504 0.47304 -1.383633
2009-03-03 08:57:30 51°17.26 2°35.375 -999 0.084504 0.473031 -1.383633
2009-03-03 08:57:36 51°17.279 2°35.361 -999 0.084504 0.473031 -1.383633
2009-03-03 08:57:41 51°17.295 2°35.349 -999 0.084504 0.473031 -1.383633
2009-03-03 08:57:45 51°17.308 2°35.34 -999 0.084504 0.473031 -1.383633
2009-03-03 08:57:51 51°17.327 2°35.325 -999 0.084504 0.473031 -1.383633
2009-03-03 08:57:56 51°17.344 2°35.314 -999 0.084504 0.47304 -1.383633
2009-03-03 08:58:01 51°17.36 2°35.302 -999 0.084504 0.47304 -1.383633
2009-03-03 08:58:06 51°17.376 2°35.29 -999 0.084504 0.47304 -1.383633
2009-03-03 08:58:11 51°17.392 2°35.278 -999 0.084504 0.473057 -1.383633
2009-03-03 08:58:16 51°17.408 2°35.266 -999 0.084504 0.473066 -1.383633
2009-03-03 08:58:21 51°17.424 2°35.254 -999 0.084504 0.473066 -1.383633
2009-03-03 08:58:25 51°17.436 2°35.242 -999 0.084504 0.4731 -1.383633
2009-03-03 08:58:31 51°17.455 2°35.226 -999 0.084504 0.4731 -1.383633
2009-03-03 08:58:36 51°17.47 2°35.211 -999 0.084504 0.4731 -1.383633
2009-03-03 08:58:41 51°17.485 2°35.196 -999 0.084504 0.4731 -1.383633
2009-03-03 08:58:46 51°17.5 2°35.181 -999 0.084504 0.473109 -1.418457
2009-03-03 08:58:51 51°17.515 2°35.164 -999 0.084504 0.473109 -1.418457
2009-03-03 08:58:56 51°17.53 2°35.149 -999 0.084504 0.473109 -1.383633
2009-03-03 08:59:01 51°17.544 2°35.132 -999 0.084504 0.473126 -1.383633
2009-03-03 08:59:06 51°17.559 2°35.116 -999 0.084504 0.473109 -1.383633
2009-03-03 08:59:10 51°17.57 2°35.102 -999 0.084504 0.473109 -1.383633
2009-03-03 08:59:16 51°17.587 2°35.082 -999 0.084504 0.473109 -1.383633
2009-03-03 08:59:21 51°17.602 2°35.066 -999 0.084504 0.473109 -1.383633
2009-03-03 08:59:25 51°17.614 2°35.053 -999 0.084504 0.473126 -1.383633
2009-03-03 08:59:30 51°17.629 2°35.037 -999 0.084504 0.473134 -1.383633
2009-03-03 08:59:36 51°17.647 2°35.017 -999 0.084504 0.473134 -1.383633
2009-03-03 08:59:41 51°17.662 2°35.001 -999 0.084504 0.473143 -1.383633
2009-03-03 08:59:46 51°17.676 2°34.984 -999 0.084504 0.473134 -1.383633
2009-03-03 08:59:51 51°17.691 2°34.968 -999 0.084504 0.473134 -1.383633
2009-03-03 08:59:56 51°17.706 2°34.951 -999 0.084504 0.473134 -1.383633
2009-03-03 09:00:01 51°17.72 2°34.934 -999 0.084504 0.473152 -1.383633
2009-03-03 09:00:05 51°17.732 2°34.92 -999 0.084504 0.473178 -1.383633
2009-03-03 09:00:10 51°17.745 2°34.9 -999 0.084504 0.473178 -1.383633
2009-03-03 09:00:16 51°17.761 2°34.878 -999 0.084504 0.473186 -1.383633
2009-03-03 09:00:21 51°17.773 2°34.857 -999 0.084504 0.473186 -1.383633
2009-03-03 09:00:25 51°17.783 2°34.841 -999 0.084504 0.473169 -1.383633
2009-03-03 09:00:31 51°17.796 2°34.815 -999 0.084504 0.473178 -1.383633
2009-03-03 09:00:36 51°17.808 2°34.793 -999 0.084504 0.473152 -1.383633
2009-03-03 09:00:41 51°17.819 2°34.771 -999 0.084504 0.473195 -1.383633
2009-03-03 09:00:46 51°17.829 2°34.747 -999 0.084504 0.473221 -1.348809
2009-03-03 09:00:51 51°17.836 2°34.722 -999 0.084504 0.473221 -1.348809
2009-03-03 09:00:56 51°17.843 2°34.697 -999 0.084504 0.473255 -1.383633
2009-03-03 09:01:01 51°17.847 2°34.67 -999 0.084504 0.473195 -1.383633
2009-03-03 09:01:05 51°17.852 2°34.649 -999 0.084504 0.473212 -1.383633
2009-03-03 09:01:10 51°17.856 2°34.622 -999 0.084504 0.473178 -1.383633
2009-03-03 09:01:16 51°17.862 2°34.589 -999 0.084504 0.473186 -1.383633
2009-03-03 09:01:21 51°17.865 2°34.561 -999 0.084504 0.473186 -1.383633
2009-03-03 09:01:25 51°17.868 2°34.538 -999 0.084504 0.473186 -1.383633
2009-03-03 09:01:31 51°17.872 2°34.505 -999 0.084504 0.473169 -1.383633
2009-03-03 09:01:36 51°17.877 2°34.477 -999 0.084504 0.473186 -1.383633
2009-03-03 09:01:41 51°17.881 2°34.449 -999 0.084504 0.473178 -1.383633
2009-03-03 09:01:46 51°17.886 2°34.421 -999 0.084504 0.473195 -1.383633
2009-03-03 09:01:51 51°17.891 2°34.393 -999 0.084504 0.473195 -1.383633
2009-03-03 09:01:56 51°17.895 2°34.365 -999 0.084504 0.473186 -1.383633
2009-03-03 09:02:01 51°17.901 2°34.338 -999 0.084504 0.473203 -1.383633
2009-03-03 09:02:05 51°17.905 2°34.315 -999 0.084504 0.473203 -1.383633
2009-03-03 09:02:10 51°17.91 2°34.288 -999 0.084504 0.473195 -1.383633
2009-03-03 09:02:16 51°17.917 2°34.255 -999 0.084504 0.473195 -1.383633
2009-03-03 09:02:21 51°17.923 2°34.228 -999 0.084504 0.473195 -1.383633
2009-03-03 09:02:26 51°17.928 2°34.201 -999 0.084504 0.473203 -1.383633
2009-03-03 09:02:31 51°17.933 2°34.173 -999 0.084504 0.473203 -1.383633
2009-03-03 09:02:36 51°17.939 2°34.146 -999 0.084504 0.473212 -1.348809
2009-03-03 09:02:41 51°17.944 2°34.119 -999 0.084504 0.473212 -1.383633
2009-03-03 09:02:46 51°17.949 2°34.091 -999 0.084504 0.473212 -1.383633
2009-03-03 09:02:51 51°17.955 2°34.064 -999 0.084504 0.473212 -1.383633
2009-03-03 09:02:56 51°17.96 2°34.037 -999 0.084504 0.473212 -1.383633
2009-03-03 09:03:01 51°17.966 2°34.01 -999 0.084504 0.473238 -1.383633
2009-03-03 09:03:06 51°17.971 2°33.982 -999 0.084504 0.473238 -1.383633
2009-03-03 09:03:11 51°17.977 2°33.955 -999 0.084504 0.473238 -1.383633
2009-03-03 09:03:16 51°17.983 2°33.928 -999 0.084504 0.473238 -1.383633
2009-03-03 09:03:21 51°17.989 2°33.9 -999 0.084504 0.473238 -1.383633
2009-03-03 09:03:26 51°17.995 2°33.873 -999 0.084504 0.473247 -1.383633
2009-03-03 09:03:31 51°18.001 2°33.846 -999 0.084504 0.473255 -1.383633
2009-03-03 09:03:36 51°18.007 2°33.819 -999 0.084504 0.473255 -1.383633
2009-03-03 09:03:41 51°18.013 2°33.792 -999 0.084504 0.473255 -1.383633
2009-03-03 09:03:45 51°18.018 2°33.77 -999 0.084504 0.473255 -1.383633
2009-03-03 09:03:51 51°18.025 2°33.738 -999 0.084504 0.473255 -1.383633
2009-03-03 09:03:56 51°18.031 2°33.71 -999 0.084504 0.473255 -1.383633
2009-03-03 09:04:01 51°18.037 2°33.683 -999 0.084504 0.473255 -1.383633
2009-03-03 09:04:06 51°18.043 2°33.656 -999 0.084504 0.473264 -1.383633
2009-03-03 09:04:11 51°18.049 2°33.629 -999 0.084504 0.473264 -1.383633
2009-03-03 09:04:16 51°18.055 2°33.602 -999 0.084504 0.473264 -1.383633
2009-03-03 09:04:21 51°18.061 2°33.575 -999 0.084504 0.473264 -1.383633